Wetterdaten: Montag, 22.08.2016
Datum Zeit Temp. Aussen Temp. o. S. +5cm Feuchte Auss BlattFeu 1 Luftdruck Regen Sonnenschein Regendauer Solar Windben Empfang
22.08.2016 00:00 15,7 C 15,6 C 13,9 C 93 % 2 lf 1021,4 hPa 0,0 l/m 0 min 0 min 0 W/m 14,6 km/h (3 Bft) 100,00 %
22.08.2016 00:02 15,7 C 15,6 C 13,9 C 93 % 2 lf 1021,4 hPa 0,0 l/m 0 min 0 min 0 W/m 14,6 km/h (3 Bft) 100,00 %
22.08.2016 00:05 15,7 C 15,6 C 13,9 C 94 % 2 lf 1021,4 hPa 0,0 l/m 0 min 0 min 0 W/m 12,6 km/h (3 Bft) 100,00 %
22.08.2016 00:06 15,8 C 15,6 C 13,9 C 94 % 2 lf 1021,4 hPa 0,0 l/m 0 min 0 min 0 W/m 6,3 km/h (2 Bft) 92,31 %
22.08.2016 00:08 15,7 C 15,6 C 13,9 C 94 % 2 lf 1021,4 hPa 0,0 l/m 0 min 0 min 0 W/m 14,6 km/h (3 Bft) 97,87 %
22.08.2016 00:10 15,7 C 15,6 C 13,9 C 94 % 2 lf 1021,4 hPa 0,0 l/m 0 min 0 min 0 W/m 12,6 km/h (3 Bft) 97,83 %
22.08.2016 00:12 15,7 C 15,6 C 13,9 C 94 % 2 lf 1021,4 hPa 0,0 l/m 0 min 0 min 0 W/m 18,8 km/h (3 Bft) 95,74 %
22.08.2016 00:14 15,7 C 15,6 C 13,9 C 94 % 2 lf 1021,4 hPa 0,0 l/m 0 min 0 min 0 W/m 18,8 km/h (3 Bft) 95,74 %
22.08.2016 00:16 15,7 C 15,6 C 13,9 C 94 % 2 lf 1021,4 hPa 0,0 l/m 0 min 0 min 0 W/m 18,8 km/h (3 Bft) 97,87 %
22.08.2016 00:18 15,7 C 15,6 C 13,9 C 94 % 2 lf 1021,5 hPa 0,0 l/m 0 min 0 min 0 W/m 16,7 km/h (3 Bft) 97,87 %
22.08.2016 00:20 15,7 C 15,6 C 13,9 C 94 % 2 lf 1021,5 hPa 0,0 l/m 0 min 0 min 0 W/m 18,8 km/h (3 Bft) 97,87 %
22.08.2016 00:22 15,7 C 15,6 C 13,9 C 94 % 2 lf 1021,5 hPa 0,0 l/m 0 min 0 min 0 W/m 16,7 km/h (3 Bft) 97,83 %
22.08.2016 00:24 15,7 C 15,6 C 13,9 C 94 % 2 lf 1021,5 hPa 0,0 l/m 0 min 0 min 0 W/m 14,6 km/h (3 Bft) 95,74 %
22.08.2016 00:26 15,7 C 15,6 C 13,9 C 94 % 2 lf 1021,5 hPa 0,0 l/m 0 min 0 min 0 W/m 14,6 km/h (3 Bft) 95,74 %
22.08.2016 00:28 15,7 C 15,6 C 13,9 C 94 % 2 lf 1021,6 hPa 0,0 l/m 0 min 0 min 0 W/m 14,6 km/h (3 Bft) 97,87 %
22.08.2016 00:30 15,7 C 15,6 C 13,9 C 94 % 2 lf 1021,5 hPa 0,0 l/m 0 min 0 min 0 W/m 16,7 km/h (3 Bft) 97,87 %
22.08.2016 00:32 15,7 C 15,6 C 13,9 C 94 % 2 lf 1021,6 hPa 0,0 l/m 0 min 0 min 0 W/m 14,6 km/h (3 Bft) 97,83 %
22.08.2016 00:34 15,7 C 15,6 C 13,9 C 94 % 2 lf 1021,6 hPa 0,0 l/m 0 min 0 min 0 W/m 14,6 km/h (3 Bft) 97,87 %
22.08.2016 00:36 15,7 C 15,6 C 13,9 C 94 % 2 lf 1021,7 hPa 0,0 l/m 0 min 0 min 0 W/m 12,6 km/h (3 Bft) 97,87 %
22.08.2016 00:38 15,7 C 15,6 C 13,9 C 94 % 2 lf 1021,7 hPa 0,0 l/m 0 min 0 min 0 W/m 14,6 km/h (3 Bft) 93,62 %
22.08.2016 00:40 15,7 C 15,6 C 13,9 C 94 % 2 lf 1021,7 hPa 0,0 l/m 0 min 0 min 0 W/m 16,7 km/h (3 Bft) 93,62 %
22.08.2016 00:42 15,6 C 15,6 C 13,9 C 94 % 2 lf 1021,6 hPa 0,0 l/m 0 min 0 min 0 W/m 14,6 km/h (3 Bft) 95,74 %
22.08.2016 00:44 15,6 C 15,6 C 13,9 C 94 % 2 lf 1021,7 hPa 0,0 l/m 0 min 0 min 0 W/m 18,8 km/h (3 Bft) 95,74 %
22.08.2016 00:46 15,6 C 15,6 C 13,9 C 94 % 2 lf 1021,7 hPa 0,0 l/m 0 min 0 min 0 W/m 18,8 km/h (3 Bft) 100,00 %
22.08.2016 00:48 15,6 C 15,6 C 13,9 C 94 % 2 lf 1021,7 hPa 0,0 l/m 0 min 0 min 0 W/m 18,8 km/h (3 Bft) 95,74 %
22.08.2016 00:50 15,6 C 15,6 C 13,9 C 94 % 2 lf 1021,7 hPa 0,0 l/m 0 min 0 min 0 W/m 16,7 km/h (3 Bft) 97,87 %
22.08.2016 00:52 15,6 C 15,6 C 13,9 C 94 % 2 lf 1021,6 hPa 0,0 l/m 0 min 0 min 0 W/m 16,7 km/h (3 Bft) 91,49 %
22.08.2016 00:54 15,6 C 15,6 C 13,9 C 94 % 2 lf 1021,6 hPa 0,0 l/m 0 min 0 min 0 W/m 14,6 km/h (3 Bft) 97,87 %
22.08.2016 00:56 15,6 C 15,6 C 13,9 C 93 % 2 lf 1021,6 hPa 0,0 l/m 0 min 0 min 0 W/m 18,8 km/h (3 Bft) 95,65 %
22.08.2016 00:58 15,6 C 15,6 C 13,9 C 93 % 2 lf 1021,7 hPa 0,0 l/m 0 min 0 min 0 W/m 14,6 km/h (3 Bft) 93,62 %
22.08.2016 01:00 15,6 C 15,6 C 13,9 C 93 % 2 lf 1021,7 hPa 0,0 l/m 0 min 0 min 0 W/m 18,8 km/h (3 Bft) 95,74 %
22.08.2016 01:02 15,5 C 15,6 C 13,9 C 93 % 2 lf 1021,7 hPa 0,0 l/m 0 min 0 min 0 W/m 14,6 km/h (3 Bft) 95,74 %
22.08.2016 01:04 15,5 C 15,6 C 13,9 C 93 % 2 lf 1021,7 hPa 0,0 l/m 0 min 0 min 0 W/m 14,6 km/h (3 Bft) 100,00 %
22.08.2016 01:06 15,5 C 15,6 C 13,9 C 93 % 2 lf 1021,7 hPa 0,0 l/m 0 min 0 min 0 W/m 12,6 km/h (3 Bft) 95,74 %
22.08.2016 01:08 15,5 C 15,6 C 13,9 C 93 % 2 lf 1021,7 hPa 0,0 l/m 0 min 0 min 0 W/m 14,6 km/h (3 Bft) 97,83 %
22.08.2016 01:10 15,4 C 15,6 C 13,9 C 93 % 2 lf 1021,7 hPa 0,0 l/m 0 min 0 min 0 W/m 16,7 km/h (3 Bft) 97,87 %
22.08.2016 01:12 15,4 C 15,6 C 13,9 C 93 % 2 lf 1021,7 hPa 0,0 l/m 0 min 0 min 0 W/m 14,6 km/h (3 Bft) 95,74 %
22.08.2016 01:14 15,4 C 15,0 C 13,3 C 93 % 2 lf 1021,7 hPa 0,0 l/m 0 min 0 min 0 W/m 12,6 km/h (3 Bft) 97,87 %
22.08.2016 01:16 15,4 C 15,6 C 13,3 C 93 % 2 lf 1021,8 hPa 0,0 l/m 0 min 0 min 0 W/m 18,8 km/h (3 Bft) 93,62 %
22.08.2016 01:18 15,4 C 15,6 C 13,9 C 93 % 2 lf 1021,8 hPa 0,0 l/m 0 min 0 min 0 W/m 18,8 km/h (3 Bft) 97,87 %
22.08.2016 01:20 15,4 C 15,6 C 13,9 C 93 % 2 lf 1021,8 hPa 0,0 l/m 0 min 0 min 0 W/m 12,6 km/h (3 Bft) 97,83 %
22.08.2016 01:22 15,3 C 15,0 C 13,3 C 93 % 2 lf 1021,8 hPa 0,0 l/m 0 min 0 min 0 W/m 12,6 km/h (3 Bft) 95,74 %
22.08.2016 01:24 15,3 C 15,0 C 13,3 C 92 % 2 lf 1021,8 hPa 0,0 l/m 0 min 0 min 0 W/m 14,6 km/h (3 Bft) 91,49 %
22.08.2016 01:26 15,3 C 15,0 C 13,3 C 92 % 2 lf 1021,9 hPa 0,0 l/m 0 min 0 min 0 W/m 14,6 km/h (3 Bft) 97,87 %
22.08.2016 01:28 15,3 C 15,0 C 13,3 C 92 % 2 lf 1021,9 hPa 0,0 l/m 0 min 0 min 0 W/m 14,6 km/h (3 Bft) 95,74 %
22.08.2016 01:30 15,3 C 15,0 C 13,3 C 92 % 2 lf 1021,8 hPa 0,0 l/m 0 min 0 min 0 W/m 14,6 km/h (3 Bft) 97,87 %
22.08.2016 01:32 15,3 C 15,0 C 13,3 C 92 % 1 lf 1021,9 hPa 0,0 l/m 0 min 0 min 0 W/m 12,6 km/h (3 Bft) 95,74 %
22.08.2016 01:34 15,3 C 15,0 C 13,3 C 92 % 1 lf 1021,9 hPa 0,0 l/m 0 min 0 min 0 W/m 12,6 km/h (3 Bft) 97,87 %
22.08.2016 01:36 15,3 C 15,0 C 13,3 C 92 % 1 lf 1021,9 hPa 0,0 l/m 0 min 0 min 0 W/m 12,6 km/h (3 Bft) 100,00 %
22.08.2016 01:38 15,2 C 15,0 C 13,3 C 92 % 1 lf 1021,9 hPa 0,0 l/m 0 min 0 min 0 W/m 14,6 km/h (3 Bft) 97,87 %
22.08.2016 01:40 15,2 C 15,0 C 13,3 C 92 % 1 lf 1021,9 hPa 0,0 l/m 0 min 0 min 0 W/m 14,6 km/h (3 Bft) 97,87 %
22.08.2016 01:42 15,2 C 15,0 C 13,3 C 92 % 1 lf 1021,9 hPa 0,0 l/m 0 min 0 min 0 W/m 14,6 km/h (3 Bft) 97,83 %
22.08.2016 01:44 15,2 C 15,0 C 13,3 C 92 % 1 lf 1021,9 hPa 0,0 l/m 0 min 0 min 0 W/m 12,6 km/h (3 Bft) 95,74 %
22.08.2016 01:46 15,2 C 15,0 C 13,3 C 92 % 1 lf 1021,9 hPa 0,0 l/m 0 min 0 min 0 W/m 12,6 km/h (3 Bft) 95,74 %
22.08.2016 01:48 15,2 C 15,0 C 13,3 C 92 % 1 lf 1021,9 hPa 0,0 l/m 0 min 0 min 0 W/m 8,4 km/h (2 Bft) 95,74 %
22.08.2016 01:50 15,2 C 15,0 C 13,3 C 92 % 2 lf 1022,1 hPa 0,0 l/m 0 min 0 min 0 W/m 10,5 km/h (2 Bft) 95,74 %
22.08.2016 01:52 15,2 C 15,0 C 13,3 C 92 % 2 lf 1022,0 hPa 0,0 l/m 0 min 0 min 0 W/m 12,6 km/h (3 Bft) 93,62 %
22.08.2016 01:54 15,2 C 15,0 C 13,3 C 91 % 2 lf 1022,0 hPa 0,0 l/m 0 min 0 min 0 W/m 10,5 km/h (2 Bft) 93,48 %
22.08.2016 01:56 15,2 C 15,0 C 13,3 C 91 % 2 lf 1022,0 hPa 0,0 l/m 0 min 0 min 0 W/m 12,6 km/h (3 Bft) 93,62 %
22.08.2016 01:58 15,2 C 14,4 C 12,8 C 91 % 2 lf 1021,9 hPa 0,0 l/m 0 min 0 min 0 W/m 12,6 km/h (3 Bft) 93,62 %
22.08.2016 02:00 15,1 C 14,4 C 12,8 C 91 % 2 lf 1022,0 hPa 0,0 l/m 0 min 0 min 0 W/m 16,7 km/h (3 Bft) 95,74 %
22.08.2016 02:03 15,1 C 14,4 C 13,3 C 91 % 1 lf 1022,0 hPa 0,0 l/m 0 min 0 min 0 W/m 18,8 km/h (3 Bft) 95,71 %
22.08.2016 02:04 15,1 C 14,4 C 13,3 C 91 % 1 lf 1022,0 hPa 0,0 l/m 0 min 0 min 0 W/m 16,7 km/h (3 Bft) 91,67 %
22.08.2016 02:06 15,1 C 15,0 C 13,3 C 91 % 1 lf 1022,0 hPa 0,0 l/m 0 min 0 min 0 W/m 16,7 km/h (3 Bft) 95,65 %
22.08.2016 02:08 15,1 C 14,4 C 13,3 C 91 % 1 lf 1022,0 hPa 0,0 l/m 0 min 0 min 0 W/m 10,5 km/h (2 Bft) 95,74 %
22.08.2016 02:10 15,0 C 14,4 C 13,3 C 91 % 1 lf 1022,0 hPa 0,0 l/m 0 min 0 min 0 W/m 12,6 km/h (3 Bft) 95,74 %
22.08.2016 02:12 15,0 C 14,4 C 12,8 C 91 % 1 lf 1022,0 hPa 0,0 l/m 0 min 0 min 0 W/m 10,5 km/h (2 Bft) 97,87 %
22.08.2016 02:14 15,0 C 14,4 C 12,8 C 91 % 1 lf 1022,0 hPa 0,0 l/m 0 min 0 min 0 W/m 14,6 km/h (3 Bft) 95,74 %
22.08.2016 02:16 15,0 C 14,4 C 12,8 C 91 % 1 lf 1022,1 hPa 0,0 l/m 0 min 0 min 0 W/m 12,6 km/h (3 Bft) 95,74 %
22.08.2016 02:18 14,9 C 14,4 C 12,8 C 91 % 1 lf 1022,1 hPa 0,0 l/m 0 min 0 min 0 W/m 16,7 km/h (3 Bft) 95,65 %
22.08.2016 02:20 14,9 C 14,4 C 13,3 C 91 % 1 lf 1022,1 hPa 0,0 l/m 0 min 0 min 0 W/m 16,7 km/h (3 Bft) 97,87 %
22.08.2016 02:22 14,9 C 14,4 C 13,3 C 91 % 1 lf 1022,1 hPa 0,0 l/m 0 min 0 min 0 W/m 14,6 km/h (3 Bft) 97,87 %
22.08.2016 02:24 14,9 C 14,4 C 13,3 C 91 % 1 lf 1022,1 hPa 0,0 l/m 0 min 0 min 0 W/m 12,6 km/h (3 Bft) 97,87 %
22.08.2016 02:26 14,9 C 14,4 C 13,3 C 91 % 1 lf 1022,1 hPa 0,0 l/m 0 min 0 min 0 W/m 16,7 km/h (3 Bft) 97,87 %
22.08.2016 02:28 14,9 C 14,4 C 13,3 C 91 % 1 lf 1022,1 hPa 0,0 l/m 0 min 0 min 0 W/m 12,6 km/h (3 Bft) 95,74 %
22.08.2016 02:30 14,9 C 14,4 C 13,3 C 91 % 1 lf 1022,2 hPa 0,0 l/m 0 min 0 min 0 W/m 14,6 km/h (3 Bft) 97,83 %
22.08.2016 02:32 14,9 C 15,0 C 13,3 C 91 % 1 lf 1022,3 hPa 0,0 l/m 0 min 0 min 0 W/m 14,6 km/h (3 Bft) 93,62 %
22.08.2016 02:34 14,8 C 14,4 C 13,3 C 91 % 1 lf 1022,2 hPa 0,0 l/m 0 min 0 min 0 W/m 12,6 km/h (3 Bft) 97,87 %
22.08.2016 02:36 14,8 C 15,0 C 13,3 C 91 % 1 lf 1022,3 hPa 0,0 l/m 0 min 0 min 0 W/m 16,7 km/h (3 Bft) 97,14 %
22.08.2016 02:38 14,8 C 15,0 C 13,3 C 91 % 1 lf 1022,3 hPa 0,0 l/m 0 min 0 min 0 W/m 8,4 km/h (2 Bft) 97,87 %
22.08.2016 02:40 14,8 C 14,4 C 12,8 C 91 % 1 lf 1022,4 hPa 0,0 l/m 0 min 0 min 0 W/m 10,5 km/h (2 Bft) 93,62 %
22.08.2016 02:42 14,8 C 14,4 C 12,8 C 91 % 1 lf 1022,4 hPa 0,0 l/m 0 min 0 min 0 W/m 14,6 km/h (3 Bft) 96,23 %
22.08.2016 02:44 14,8 C 14,4 C 12,8 C 91 % 1 lf 1022,4 hPa 0,0 l/m 0 min 0 min 0 W/m 10,5 km/h (2 Bft) 95,65 %
22.08.2016 02:46 14,8 C 14,4 C 12,8 C 91 % 1 lf 1022,3 hPa 0,0 l/m 0 min 0 min 0 W/m 10,5 km/h (2 Bft) 97,56 %
22.08.2016 02:48 14,8 C 14,4 C 12,8 C 91 % 1 lf 1022,4 hPa 0,0 l/m 0 min 0 min 0 W/m 10,5 km/h (2 Bft) 97,87 %
22.08.2016 02:50 14,8 C 14,4 C 12,8 C 91 % 1 lf 1022,4 hPa 0,0 l/m 0 min 0 min 0 W/m 6,3 km/h (2 Bft) 93,62 %
22.08.2016 02:52 14,8 C 14,4 C 12,8 C 91 % 1 lf 1022,3 hPa 0,0 l/m 0 min 0 min 0 W/m 10,5 km/h (2 Bft) 91,49 %
22.08.2016 02:54 14,8 C 14,4 C 12,8 C 91 % 1 lf 1022,3 hPa 0,0 l/m 0 min 0 min 0 W/m 8,4 km/h (2 Bft) 95,74 %
22.08.2016 02:56 14,8 C 14,4 C 12,8 C 91 % 1 lf 1022,3 hPa 0,0 l/m 0 min 0 min 0 W/m 8,4 km/h (2 Bft) 95,65 %
22.08.2016 02:58 14,7 C 14,4 C 12,8 C 91 % 1 lf 1022,4 hPa 0,0 l/m 0 min 0 min 0 W/m 6,3 km/h (2 Bft) 95,74 %
22.08.2016 03:00 14,7 C 14,4 C 12,8 C 91 % 1 lf 1022,4 hPa 0,0 l/m 0 min 0 min 0 W/m 12,6 km/h (3 Bft) 97,87 %
22.08.2016 03:02 14,7 C 14,4 C 12,8 C 91 % 1 lf 1022,3 hPa 0,0 l/m 0 min 0 min 0 W/m 12,6 km/h (3 Bft) 96,30 %
22.08.2016 03:04 14,7 C 14,4 C 12,8 C 91 % 1 lf 1022,2 hPa 0,0 l/m 0 min 0 min 0 W/m 8,4 km/h (2 Bft) 93,62 %
22.08.2016 03:06 14,7 C 14,4 C 12,8 C 91 % 1 lf 1022,1 hPa 0,0 l/m 0 min 0 min 0 W/m 8,4 km/h (2 Bft) 96,08 %
22.08.2016 03:08 14,7 C 14,4 C 12,8 C 91 % 1 lf 1022,1 hPa 0,0 l/m 0 min 0 min 0 W/m 10,5 km/h (2 Bft) 93,62 %
22.08.2016 03:10 14,7 C 14,4 C 12,8 C 91 % 2 lf 1022,1 hPa 0,0 l/m 0 min 0 min 0 W/m 8,4 km/h (2 Bft) 93,62 %
22.08.2016 03:12 14,7 C 14,4 C 12,8 C 91 % 2 lf 1022,1 hPa 0,0 l/m 0 min 0 min 0 W/m 8,4 km/h (2 Bft) 89,36 %
22.08.2016 03:14 14,7 C 14,4 C 12,8 C 91 % 2 lf 1022,1 hPa 0,0 l/m 0 min 0 min 0 W/m 8,4 km/h (2 Bft) 91,49 %
22.08.2016 03:16 14,7 C 14,4 C 12,8 C 91 % 2 lf 1022,1 hPa 0,0 l/m 0 min 0 min 0 W/m 8,4 km/h (2 Bft) 95,65 %
22.08.2016 03:18 14,7 C 14,4 C 12,8 C 91 % 1 lf 1022,1 hPa 0,0 l/m 0 min 0 min 0 W/m 12,6 km/h (3 Bft) 95,74 %
22.08.2016 03:20 14,6 C 14,4 C 12,8 C 91 % 1 lf 1022,1 hPa 0,0 l/m 0 min 0 min 0 W/m 8,4 km/h (2 Bft) 95,74 %
22.08.2016 03:22 14,6 C 14,4 C 12,8 C 91 % 1 lf 1022,1 hPa 0,0 l/m 0 min 0 min 0 W/m 8,4 km/h (2 Bft) 95,74 %
22.08.2016 03:24 14,6 C 14,4 C 12,8 C 91 % 2 lf 1022,1 hPa 0,0 l/m 0 min 0 min 0 W/m 10,5 km/h (2 Bft) 95,74 %
22.08.2016 03:26 14,6 C 14,4 C 12,8 C 91 % 1 lf 1022,1 hPa 0,0 l/m 0 min 0 min 0 W/m 10,5 km/h (2 Bft) 95,74 %
22.08.2016 03:28 14,6 C 14,4 C 12,8 C 91 % 1 lf 1022,2 hPa 0,0 l/m 0 min 0 min 0 W/m 8,4 km/h (2 Bft) 97,83 %
22.08.2016 03:30 14,6 C 14,4 C 12,8 C 91 % 1 lf 1022,1 hPa 0,0 l/m 0 min 0 min 0 W/m 10,5 km/h (2 Bft) 97,87 %
22.08.2016 03:32 14,6 C 14,4 C 12,8 C 91 % 1 lf 1022,1 hPa 0,0 l/m 0 min 0 min 0 W/m 8,4 km/h (2 Bft) 93,62 %
22.08.2016 03:34 14,6 C 14,4 C 12,8 C 91 % 1 lf 1022,1 hPa 0,0 l/m 0 min 0 min 0 W/m 6,3 km/h (2 Bft) 97,87 %
22.08.2016 03:36 14,5 C 13,9 C 12,8 C 91 % 1 lf 1022,2 hPa 0,0 l/m 0 min 0 min 0 W/m 10,5 km/h (2 Bft) 97,14 %
22.08.2016 03:38 14,5 C 13,9 C 12,8 C 91 % 1 lf 1022,2 hPa 0,0 l/m 0 min 0 min 0 W/m 8,4 km/h (2 Bft) 95,74 %
22.08.2016 03:40 14,5 C 14,4 C 12,8 C 91 % 1 lf 1022,3 hPa 0,0 l/m 0 min 0 min 0 W/m 10,5 km/h (2 Bft) 97,87 %
22.08.2016 03:42 14,5 C 14,4 C 12,8 C 91 % 1 lf 1022,3 hPa 0,0 l/m 0 min 0 min 0 W/m 10,5 km/h (2 Bft) 93,48 %
22.08.2016 03:44 14,4 C 14,4 C 12,8 C 91 % 1 lf 1022,4 hPa 0,0 l/m 0 min 0 min 0 W/m 8,4 km/h (2 Bft) 97,87 %
22.08.2016 03:46 14,4 C 14,4 C 12,8 C 91 % 1 lf 1022,3 hPa 0,0 l/m 0 min 0 min 0 W/m 8,4 km/h (2 Bft) 97,87 %
22.08.2016 03:48 14,4 C 13,9 C 12,8 C 91 % 1 lf 1022,4 hPa 0,0 l/m 0 min 0 min 0 W/m 8,4 km/h (2 Bft) 97,87 %
22.08.2016 03:50 14,4 C 14,4 C 12,8 C 91 % 1 lf 1022,4 hPa 0,0 l/m 0 min 0 min 0 W/m 8,4 km/h (2 Bft) 97,87 %
22.08.2016 03:52 14,4 C 14,4 C 12,8 C 91 % 1 lf 1022,4 hPa 0,0 l/m 0 min 0 min 0 W/m 8,4 km/h (2 Bft) 100,00 %
22.08.2016 03:54 14,4 C 14,4 C 12,8 C 91 % 1 lf 1022,3 hPa 0,0 l/m 0 min 0 min 0 W/m 8,4 km/h (2 Bft) 100,00 %
22.08.2016 03:56 14,4 C 14,4 C 12,8 C 91 % 1 lf 1022,3 hPa 0,0 l/m 0 min 0 min 0 W/m 8,4 km/h (2 Bft) 97,83 %
22.08.2016 03:58 14,4 C 14,4 C 12,8 C 91 % 1 lf 1022,3 hPa 0,0 l/m 0 min 0 min 0 W/m 8,4 km/h (2 Bft) 97,87 %
22.08.2016 04:00 14,4 C 14,4 C 12,8 C 91 % 1 lf 1022,3 hPa 0,0 l/m 0 min 0 min 0 W/m 10,5 km/h (2 Bft) 95,74 %
22.08.2016 04:02 14,3 C 14,4 C 12,8 C 91 % 1 lf 1022,2 hPa 0,0 l/m 0 min 0 min 0 W/m 10,5 km/h (2 Bft) 91,67 %
22.08.2016 04:04 14,3 C 14,4 C 12,8 C 91 % 1 lf 1022,2 hPa 0,0 l/m 0 min 0 min 0 W/m 10,5 km/h (2 Bft) 100,00 %
22.08.2016 04:06 14,3 C 14,4 C 12,8 C 91 % 1 lf 1022,2 hPa 0,0 l/m 0 min 0 min 0 W/m 14,6 km/h (3 Bft) 98,00 %
22.08.2016 04:08 14,4 C 14,4 C 12,8 C 91 % 1 lf 1022,2 hPa 0,0 l/m 0 min 0 min 0 W/m 16,7 km/h (3 Bft) 97,87 %
22.08.2016 04:10 14,3 C 14,4 C 12,8 C 91 % 1 lf 1022,2 hPa 0,0 l/m 0 min 0 min 0 W/m 10,5 km/h (2 Bft) 100,00 %
22.08.2016 04:12 14,3 C 14,4 C 12,8 C 91 % 1 lf 1022,2 hPa 0,0 l/m 0 min 0 min 0 W/m 10,5 km/h (2 Bft) 100,00 %
22.08.2016 04:14 14,3 C 14,4 C 12,8 C 91 % 1 lf 1022,2 hPa 0,0 l/m 0 min 0 min 0 W/m 14,6 km/h (3 Bft) 97,87 %
22.08.2016 04:16 14,3 C 14,4 C 12,8 C 91 % 1 lf 1022,2 hPa 0,0 l/m 0 min 0 min 0 W/m 10,5 km/h (2 Bft) 100,00 %
22.08.2016 04:18 14,3 C 14,4 C 12,8 C 91 % 1 lf 1022,1 hPa 0,0 l/m 0 min 0 min 0 W/m 12,6 km/h (3 Bft) 95,74 %
22.08.2016 04:20 14,3 C 14,4 C 12,8 C 91 % 1 lf 1022,1 hPa 0,0 l/m 0 min 0 min 0 W/m 10,5 km/h (2 Bft) 95,74 %
22.08.2016 04:22 14,3 C 14,4 C 12,8 C 91 % 1 lf 1022,0 hPa 0,0 l/m 0 min 0 min 0 W/m 8,4 km/h (2 Bft) 97,87 %
22.08.2016 04:24 14,3 C 14,4 C 12,8 C 91 % 1 lf 1022,2 hPa 0,0 l/m 0 min 0 min 0 W/m 12,6 km/h (3 Bft) 95,74 %
22.08.2016 04:26 14,3 C 14,4 C 12,8 C 91 % 1 lf 1022,2 hPa 0,0 l/m 0 min 0 min 0 W/m 16,7 km/h (3 Bft) 97,83 %
22.08.2016 04:28 14,3 C 14,4 C 12,8 C 91 % 1 lf 1022,4 hPa 0,0 l/m 0 min 0 min 0 W/m 12,6 km/h (3 Bft) 95,74 %
22.08.2016 04:30 14,3 C 14,4 C 12,8 C 91 % 1 lf 1022,4 hPa 0,0 l/m 0 min 0 min 0 W/m 14,6 km/h (3 Bft) 95,74 %
22.08.2016 04:32 14,3 C 14,4 C 12,8 C 91 % 1 lf 1022,4 hPa 0,0 l/m 0 min 0 min 0 W/m 12,6 km/h (3 Bft) 97,87 %
22.08.2016 04:34 14,3 C 14,4 C 12,8 C 91 % 1 lf 1022,3 hPa 0,0 l/m 0 min 0 min 0 W/m 10,5 km/h (2 Bft) 97,87 %
22.08.2016 04:36 14,3 C 14,4 C 12,8 C 91 % 1 lf 1022,4 hPa 0,0 l/m 0 min 0 min 0 W/m 16,7 km/h (3 Bft) 93,88 %
22.08.2016 04:38 14,4 C 14,4 C 12,8 C 91 % 1 lf 1022,3 hPa 0,0 l/m 0 min 0 min 0 W/m 14,6 km/h (3 Bft) 95,65 %
22.08.2016 04:40 14,3 C 14,4 C 12,8 C 91 % 1 lf 1022,2 hPa 0,0 l/m 0 min 0 min 0 W/m 8,4 km/h (2 Bft) 95,74 %
22.08.2016 04:42 14,4 C 14,4 C 12,8 C 91 % 1 lf 1022,3 hPa 0,0 l/m 0 min 0 min 0 W/m 14,6 km/h (3 Bft) 97,87 %
22.08.2016 04:44 14,3 C 14,4 C 12,8 C 91 % 1 lf 1022,3 hPa 0,0 l/m 0 min 0 min 0 W/m 14,6 km/h (3 Bft) 93,62 %
22.08.2016 04:46 14,4 C 14,4 C 12,8 C 91 % 1 lf 1022,3 hPa 0,0 l/m 0 min 0 min 0 W/m 8,4 km/h (2 Bft) 95,83 %
22.08.2016 04:48 14,4 C 14,4 C 12,8 C 91 % 1 lf 1022,2 hPa 0,0 l/m 0 min 0 min 0 W/m 16,7 km/h (3 Bft) 95,74 %
22.08.2016 04:50 14,4 C 14,4 C 12,8 C 91 % 1 lf 1022,2 hPa 0,0 l/m 0 min 0 min 0 W/m 14,6 km/h (3 Bft) 95,65 %
22.08.2016 04:52 14,4 C 14,4 C 12,8 C 91 % 1 lf 1022,2 hPa 0,0 l/m 0 min 0 min 0 W/m 16,7 km/h (3 Bft) 95,74 %
22.08.2016 04:54 14,3 C 14,4 C 12,8 C 91 % 1 lf 1022,2 hPa 0,0 l/m 0 min 0 min 0 W/m 8,4 km/h (2 Bft) 93,62 %
22.08.2016 04:56 14,4 C 14,4 C 12,8 C 91 % 1 lf 1022,3 hPa 0,0 l/m 0 min 0 min 0 W/m 14,6 km/h (3 Bft) 95,74 %
22.08.2016 04:58 14,4 C 14,4 C 12,8 C 91 % 1 lf 1022,3 hPa 0,0 l/m 0 min 0 min 0 W/m 12,6 km/h (3 Bft) 95,74 %
22.08.2016 05:00 14,4 C 14,4 C 12,8 C 91 % 1 lf 1022,2 hPa 0,0 l/m 0 min 0 min 0 W/m 10,5 km/h (2 Bft) 93,62 %
22.08.2016 05:02 14,4 C 14,4 C 12,8 C 91 % 1 lf 1022,2 hPa 0,0 l/m 0 min 0 min 0 W/m 16,7 km/h (3 Bft) 93,48 %
22.08.2016 05:04 14,4 C 14,4 C 13,3 C 91 % 1 lf 1022,2 hPa 0,0 l/m 0 min 0 min 0 W/m 14,6 km/h (3 Bft) 93,62 %
22.08.2016 05:06 14,4 C 14,4 C 13,3 C 91 % 1 lf 1022,3 hPa 0,0 l/m 0 min 0 min 0 W/m 14,6 km/h (3 Bft) 93,88 %
22.08.2016 05:08 14,4 C 14,4 C 13,3 C 91 % 1 lf 1022,3 hPa 0,0 l/m 0 min 0 min 0 W/m 14,6 km/h (3 Bft) 97,87 %
22.08.2016 05:10 14,4 C 14,4 C 13,3 C 91 % 1 lf 1022,3 hPa 0,0 l/m 0 min 0 min 0 W/m 14,6 km/h (3 Bft) 93,62 %
22.08.2016 05:12 14,4 C 14,4 C 13,3 C 91 % 1 lf 1022,2 hPa 0,0 l/m 0 min 0 min 0 W/m 14,6 km/h (3 Bft) 97,87 %
22.08.2016 05:14 14,4 C 14,4 C 13,3 C 91 % 1 lf 1022,2 hPa 0,0 l/m 0 min 0 min 0 W/m 14,6 km/h (3 Bft) 97,83 %
22.08.2016 05:16 14,4 C 14,4 C 13,3 C 91 % 1 lf 1022,2 hPa 0,0 l/m 0 min 0 min 0 W/m 16,7 km/h (3 Bft) 97,87 %
22.08.2016 05:18 14,4 C 14,4 C 13,3 C 91 % 1 lf 1022,2 hPa 0,0 l/m 0 min 0 min 0 W/m 16,7 km/h (3 Bft) 91,49 %
22.08.2016 05:20 14,5 C 14,4 C 13,3 C 91 % 1 lf 1022,2 hPa 0,0 l/m 0 min 0 min 0 W/m 14,6 km/h (3 Bft) 97,87 %
22.08.2016 05:22 14,5 C 14,4 C 13,3 C 91 % 1 lf 1022,2 hPa 0,0 l/m 0 min 0 min 0 W/m 12,6 km/h (3 Bft) 100,00 %
22.08.2016 05:24 14,5 C 14,4 C 13,3 C 91 % 1 lf 1022,2 hPa 0,0 l/m 0 min 0 min 0 W/m 12,6 km/h (3 Bft) 97,83 %
22.08.2016 05:26 14,5 C 14,4 C 13,3 C 91 % 1 lf 1022,2 hPa 0,0 l/m 0 min 0 min 0 W/m 12,6 km/h (3 Bft) 97,87 %
22.08.2016 05:28 14,5 C 14,4 C 13,3 C 91 % 1 lf 1022,2 hPa 0,0 l/m 0 min 0 min 0 W/m 10,5 km/h (2 Bft) 100,00 %
22.08.2016 05:30 14,5 C 14,4 C 13,3 C 91 % 1 lf 1022,2 hPa 0,0 l/m 0 min 0 min 0 W/m 10,5 km/h (2 Bft) 95,74 %
22.08.2016 05:32 14,6 C 14,4 C 13,3 C 91 % 1 lf 1022,2 hPa 0,0 l/m 0 min 0 min 0 W/m 16,7 km/h (3 Bft) 100,00 %
22.08.2016 05:34 14,6 C 15,0 C 13,3 C 91 % 1 lf 1022,2 hPa 0,0 l/m 0 min 0 min 0 W/m 10,5 km/h (2 Bft) 95,74 %
22.08.2016 05:36 14,6 C 15,0 C 13,3 C 91 % 1 lf 1022,2 hPa 0,0 l/m 0 min 0 min 0 W/m 16,7 km/h (3 Bft) 100,00 %
22.08.2016 05:38 14,6 C 15,0 C 13,3 C 91 % 1 lf 1022,3 hPa 0,0 l/m 0 min 0 min 0 W/m 8,4 km/h (2 Bft) 97,87 %
22.08.2016 05:40 14,6 C 15,0 C 13,3 C 91 % 2 lf 1022,2 hPa 0,0 l/m 0 min 0 min 0 W/m 6,3 km/h (2 Bft) 100,00 %
22.08.2016 05:42 14,6 C 14,4 C 13,3 C 91 % 3 lf 1022,2 hPa 0,0 l/m 0 min 0 min 0 W/m 14,6 km/h (3 Bft) 100,00 %
22.08.2016 05:44 14,6 C 14,4 C 13,3 C 91 % 3 lf 1022,2 hPa 0,0 l/m 0 min 2 min 0 W/m 10,5 km/h (2 Bft) 97,87 %
22.08.2016 05:46 14,6 C 15,0 C 13,3 C 91 % 2 lf 1022,3 hPa 0,0 l/m 0 min 2 min 0 W/m 12,6 km/h (3 Bft) 97,87 %
22.08.2016 05:48 14,6 C 15,0 C 13,3 C 91 % 3 lf 1022,3 hPa 0,0 l/m 0 min 2 min 0 W/m 14,6 km/h (3 Bft) 95,74 %
22.08.2016 05:50 14,6 C 14,4 C 13,3 C 91 % 3 lf 1022,3 hPa 0,0 l/m 0 min 2 min 0 W/m 14,6 km/h (3 Bft) 97,83 %
22.08.2016 05:52 14,7 C 14,4 C 13,3 C 91 % 2 lf 1022,3 hPa 0,0 l/m 0 min 2 min 0 W/m 16,7 km/h (3 Bft) 91,49 %
22.08.2016 05:54 14,7 C 14,4 C 13,3 C 91 % 1 lf 1022,2 hPa 0,0 l/m 0 min 0 min 0 W/m 12,6 km/h (3 Bft) 95,74 %
22.08.2016 05:56 14,7 C 14,4 C 13,3 C 91 % 1 lf 1022,2 hPa 0,0 l/m 0 min 0 min 0 W/m 16,7 km/h (3 Bft) 95,74 %
22.08.2016 05:58 14,7 C 14,4 C 13,3 C 91 % 1 lf 1022,3 hPa 0,0 l/m 0 min 0 min 0 W/m 12,6 km/h (3 Bft) 93,62 %
22.08.2016 06:00 14,7 C 14,4 C 13,3 C 91 % 1 lf 1022,3 hPa 0,0 l/m 0 min 0 min 0 W/m 14,6 km/h (3 Bft) 89,36 %
22.08.2016 06:02 14,7 C 15,0 C 13,3 C 91 % 1 lf 1022,4 hPa 0,0 l/m 0 min 0 min 0 W/m 16,7 km/h (3 Bft) 95,74 %
22.08.2016 06:04 14,7 C 15,0 C 13,3 C 91 % 1 lf 1022,4 hPa 0,0 l/m 0 min 0 min 0 W/m 14,6 km/h (3 Bft) 93,48 %
22.08.2016 06:06 14,7 C 15,0 C 13,3 C 91 % 1 lf 1022,4 hPa 0,0 l/m 0 min 0 min 0 W/m 12,6 km/h (3 Bft) 95,74 %
22.08.2016 06:08 14,7 C 15,0 C 13,3 C 91 % 1 lf 1022,4 hPa 0,0 l/m 0 min 0 min 0 W/m 12,6 km/h (3 Bft) 95,74 %
22.08.2016 06:10 14,7 C 15,0 C 13,3 C 91 % 1 lf 1022,5 hPa 0,0 l/m 0 min 0 min 0 W/m 14,6 km/h (3 Bft) 93,62 %
22.08.2016 06:12 14,7 C 15,0 C 13,3 C 91 % 1 lf 1022,5 hPa 0,0 l/m 0 min 0 min 0 W/m 12,6 km/h (3 Bft) 91,49 %
22.08.2016 06:14 14,7 C 15,0 C 13,3 C 91 % 1 lf 1022,5 hPa 0,0 l/m 0 min 0 min 0 W/m 10,5 km/h (2 Bft) 95,65 %
22.08.2016 06:16 14,7 C 15,0 C 13,3 C 91 % 1 lf 1022,5 hPa 0,0 l/m 0 min 0 min 0 W/m 12,6 km/h (3 Bft) 95,74 %
22.08.2016 06:18 14,8 C 15,0 C 13,3 C 91 % 1 lf 1022,5 hPa 0,0 l/m 0 min 0 min 9 W/m 14,6 km/h (3 Bft) 95,74 %
22.08.2016 06:20 14,8 C 15,0 C 13,3 C 91 % 1 lf 1022,6 hPa 0,0 l/m 0 min 0 min 9 W/m 10,5 km/h (2 Bft) 93,62 %
22.08.2016 06:22 14,8 C 15,0 C 13,3 C 91 % 1 lf 1022,6 hPa 0,0 l/m 0 min 0 min 9 W/m 18,8 km/h (3 Bft) 93,62 %
22.08.2016 06:24 14,8 C 15,0 C 13,3 C 91 % 1 lf 1022,5 hPa 0,0 l/m 0 min 0 min 9 W/m 18,8 km/h (3 Bft) 95,74 %
22.08.2016 06:26 14,8 C 15,0 C 13,3 C 92 % 1 lf 1022,4 hPa 0,0 l/m 0 min 0 min 9 W/m 14,6 km/h (3 Bft) 93,48 %
22.08.2016 06:28 14,8 C 15,0 C 13,3 C 92 % 1 lf 1022,4 hPa 0,0 l/m 0 min 0 min 9 W/m 10,5 km/h (2 Bft) 95,74 %
22.08.2016 06:30 14,8 C 15,0 C 13,3 C 92 % 1 lf 1022,4 hPa 0,0 l/m 0 min 0 min 9 W/m 14,6 km/h (3 Bft) 95,74 %
22.08.2016 06:32 14,8 C 15,0 C 13,3 C 92 % 1 lf 1022,4 hPa 0,0 l/m 0 min 0 min 10 W/m 14,6 km/h (3 Bft) 93,62 %
22.08.2016 06:34 14,8 C 15,0 C 13,9 C 92 % 1 lf 1022,5 hPa 0,0 l/m 0 min 0 min 11 W/m 14,6 km/h (3 Bft) 91,49 %
22.08.2016 06:36 14,8 C 15,0 C 13,9 C 92 % 1 lf 1022,5 hPa 0,0 l/m 0 min 0 min 11 W/m 14,6 km/h (3 Bft) 96,49 %
22.08.2016 06:38 14,8 C 15,0 C 13,9 C 92 % 1 lf 1022,5 hPa 0,0 l/m 0 min 0 min 11 W/m 12,6 km/h (3 Bft) 95,74 %
22.08.2016 06:40 14,8 C 15,0 C 13,9 C 92 % 1 lf 1022,4 hPa 0,0 l/m 0 min 0 min 18 W/m 10,5 km/h (2 Bft) 93,62 %
22.08.2016 06:42 14,8 C 15,0 C 13,9 C 92 % 1 lf 1022,4 hPa 0,0 l/m 0 min 0 min 18 W/m 12,6 km/h (3 Bft) 93,62 %
22.08.2016 06:44 14,9 C 15,0 C 13,9 C 92 % 1 lf 1022,4 hPa 0,0 l/m 0 min 0 min 18 W/m 12,6 km/h (3 Bft) 91,49 %
22.08.2016 06:46 14,9 C 15,0 C 13,9 C 92 % 1 lf 1022,4 hPa 0,0 l/m 0 min 0 min 18 W/m 8,4 km/h (2 Bft) 95,74 %
22.08.2016 06:48 14,9 C 15,0 C 13,9 C 92 % 1 lf 1022,5 hPa 0,0 l/m 0 min 0 min 18 W/m 12,6 km/h (3 Bft) 95,65 %
22.08.2016 06:50 14,9 C 15,0 C 13,9 C 92 % 1 lf 1022,6 hPa 0,0 l/m 0 min 0 min 18 W/m 8,4 km/h (2 Bft) 95,83 %
22.08.2016 06:52 14,9 C 15,0 C 13,9 C 92 % 1 lf 1022,6 hPa 0,0 l/m 0 min 0 min 18 W/m 8,4 km/h (2 Bft) 91,89 %
22.08.2016 06:54 14,9 C 15,0 C 13,9 C 92 % 1 lf 1022,6 hPa 0,0 l/m 0 min 0 min 18 W/m 10,5 km/h (2 Bft) 95,65 %
22.08.2016 06:56 14,9 C 15,0 C 13,9 C 92 % 1 lf 1022,6 hPa 0,0 l/m 0 min 0 min 12 W/m 10,5 km/h (2 Bft) 98,18 %
22.08.2016 06:58 14,9 C 15,0 C 13,9 C 92 % 1 lf 1022,6 hPa 0,0 l/m 0 min 0 min 14 W/m 10,5 km/h (2 Bft) 98,00 %
22.08.2016 07:00 14,9 C 15,0 C 13,9 C 92 % 1 lf 1022,6 hPa 0,0 l/m 0 min 0 min 14 W/m 10,5 km/h (2 Bft) 94,74 %
22.08.2016 07:02 14,9 C 15,0 C 13,9 C 92 % 1 lf 1022,6 hPa 0,0 l/m 0 min 0 min 15 W/m 10,5 km/h (2 Bft) 98,00 %
22.08.2016 07:04 14,9 C 15,0 C 13,9 C 92 % 1 lf 1022,6 hPa 0,0 l/m 0 min 0 min 17 W/m 10,5 km/h (2 Bft) 98,00 %
22.08.2016 07:06 14,9 C 15,0 C 13,9 C 92 % 1 lf 1022,6 hPa 0,0 l/m 0 min 0 min 17 W/m 14,6 km/h (3 Bft) 95,74 %
22.08.2016 07:08 15,0 C 15,6 C 13,9 C 92 % 1 lf 1022,6 hPa 0,0 l/m 0 min 0 min 18 W/m 14,6 km/h (3 Bft) 94,29 %
22.08.2016 07:10 15,0 C 15,6 C 13,9 C 92 % 1 lf 1022,6 hPa 0,0 l/m 0 min 0 min 19 W/m 12,6 km/h (3 Bft) 93,62 %
22.08.2016 07:12 15,0 C 15,6 C 13,9 C 92 % 2 lf 1022,6 hPa 0,0 l/m 0 min 0 min 24 W/m 10,5 km/h (2 Bft) 96,36 %
22.08.2016 07:14 15,1 C 15,0 C 13,9 C 92 % 12 lf 1022,6 hPa 0,0 l/m 0 min 2 min 25 W/m 12,6 km/h (3 Bft) 95,92 %
22.08.2016 07:16 15,1 C 15,0 C 13,9 C 92 % 12 lf 1022,5 hPa 0,0 l/m 0 min 2 min 25 W/m 8,4 km/h (2 Bft) 93,62 %
22.08.2016 07:18 15,1 C 15,0 C 13,9 C 92 % 10 lf 1022,5 hPa 0,0 l/m 0 min 2 min 26 W/m 6,3 km/h (2 Bft) 93,62 %
22.08.2016 07:20 15,1 C 15,0 C 13,9 C 92 % 10 lf 1022,6 hPa 0,0 l/m 0 min 2 min 25 W/m 10,5 km/h (2 Bft) 97,92 %
22.08.2016 07:22 15,1 C 15,0 C 13,9 C 92 % 10 lf 1022,6 hPa 0,0 l/m 0 min 2 min 22 W/m 16,7 km/h (3 Bft) 97,87 %
22.08.2016 07:24 15,2 C 15,0 C 13,9 C 92 % 9 lf 1022,6 hPa 0,0 l/m 0 min 2 min 17 W/m 16,7 km/h (3 Bft) 97,14 %
22.08.2016 07:26 15,2 C 15,0 C 13,3 C 92 % 8 lf 1022,7 hPa 0,0 l/m 0 min 2 min 16 W/m 12,6 km/h (3 Bft) 98,18 %
22.08.2016 07:28 15,2 C 15,0 C 13,3 C 92 % 5 lf 1022,7 hPa 0,0 l/m 0 min 0 min 18 W/m 10,5 km/h (2 Bft) 97,96 %
22.08.2016 07:30 15,2 C 15,0 C 13,3 C 92 % 4 lf 1022,7 hPa 0,0 l/m 0 min 0 min 18 W/m 12,6 km/h (3 Bft) 97,92 %
22.08.2016 07:32 15,2 C 15,0 C 13,3 C 92 % 3 lf 1022,7 hPa 0,0 l/m 0 min 0 min 17 W/m 10,5 km/h (2 Bft) 100,00 %
22.08.2016 07:34 15,2 C 15,0 C 13,3 C 92 % 2 lf 1022,7 hPa 0,0 l/m 0 min 0 min 18 W/m 12,6 km/h (3 Bft) 94,55 %
22.08.2016 07:36 15,2 C 15,6 C 13,9 C 92 % 1 lf 1022,8 hPa 0,0 l/m 0 min 0 min 18 W/m 16,7 km/h (3 Bft) 96,00 %
22.08.2016 07:38 15,2 C 15,6 C 13,9 C 92 % 1 lf 1022,8 hPa 0,0 l/m 0 min 0 min 19 W/m 12,6 km/h (3 Bft) 97,87 %
22.08.2016 07:40 15,2 C 15,6 C 13,9 C 92 % 1 lf 1022,8 hPa 0,0 l/m 0 min 0 min 19 W/m 16,7 km/h (3 Bft) 97,22 %
22.08.2016 07:42 15,2 C 15,6 C 13,9 C 92 % 1 lf 1022,8 hPa 0,0 l/m 0 min 0 min 21 W/m 12,6 km/h (3 Bft) 98,15 %
22.08.2016 07:44 15,2 C 15,6 C 13,9 C 92 % 2 lf 1022,8 hPa 0,0 l/m 0 min 0 min 19 W/m 14,6 km/h (3 Bft) 96,00 %
22.08.2016 07:46 15,2 C 15,6 C 13,9 C 92 % 1 lf 1022,8 hPa 0,0 l/m 0 min 0 min 21 W/m 12,6 km/h (3 Bft) 97,92 %
22.08.2016 07:48 15,2 C 15,6 C 13,9 C 92 % 1 lf 1022,8 hPa 0,0 l/m 0 min 0 min 21 W/m 20,9 km/h (4 Bft) 94,29 %
22.08.2016 07:50 15,2 C 15,6 C 13,9 C 92 % 2 lf 1022,8 hPa 0,0 l/m 0 min 0 min 21 W/m 14,6 km/h (3 Bft) 92,59 %
22.08.2016 07:52 15,2 C 15,6 C 13,9 C 92 % 4 lf 1022,8 hPa 0,0 l/m 0 min 2 min 21 W/m 14,6 km/h (3 Bft) 97,87 %
22.08.2016 07:54 15,2 C 15,0 C 13,9 C 92 % 12 lf 1022,8 hPa 0,0 l/m 0 min 2 min 23 W/m 12,6 km/h (3 Bft) 98,00 %
22.08.2016 07:56 15,3 C 14,4 C 13,3 C 92 % 15 lf 1022,9 hPa 0,0 l/m 0 min 2 min 23 W/m 16,7 km/h (3 Bft) 97,92 %
22.08.2016 07:58 15,3 C 14,4 C 13,3 C 92 % 15 lf 1022,9 hPa 0,2 l/m 0 min 2 min 25 W/m 18,8 km/h (3 Bft) 94,29 %
22.08.2016 08:00 15,3 C 14,4 C 13,3 C 92 % 15 lf 1022,9 hPa 0,0 l/m 0 min 2 min 23 W/m 18,8 km/h (3 Bft) 98,00 %
22.08.2016 08:02 15,3 C 14,4 C 13,3 C 92 % 15 lf 1023,0 hPa 0,0 l/m 0 min 2 min 21 W/m 16,7 km/h (3 Bft) 98,18 %
22.08.2016 08:04 15,3 C 14,4 C 13,3 C 92 % 15 lf 1022,9 hPa 0,0 l/m 0 min 2 min 21 W/m 14,6 km/h (3 Bft) 97,56 %
22.08.2016 08:06 15,3 C 14,4 C 13,3 C 92 % 15 lf 1022,9 hPa 0,0 l/m 0 min 2 min 21 W/m 16,7 km/h (3 Bft) 98,18 %
22.08.2016 08:08 15,3 C 14,4 C 13,3 C 92 % 15 lf 1023,0 hPa 0,2 l/m 0 min 2 min 22 W/m 8,4 km/h (2 Bft) 97,37 %
22.08.2016 08:10 15,2 C 14,4 C 13,3 C 92 % 15 lf 1023,0 hPa 0,0 l/m 0 min 2 min 25 W/m 12,6 km/h (3 Bft) 95,83 %
22.08.2016 08:12 15,2 C 14,4 C 13,3 C 93 % 15 lf 1022,9 hPa 0,0 l/m 0 min 2 min 29 W/m 14,6 km/h (3 Bft) 100,00 %
22.08.2016 08:14 15,2 C 14,4 C 13,3 C 93 % 15 lf 1023,1 hPa 0,0 l/m 0 min 2 min 31 W/m 10,5 km/h (2 Bft) 98,15 %
22.08.2016 08:16 15,2 C 14,4 C 13,3 C 93 % 15 lf 1023,1 hPa 0,0 l/m 0 min 2 min 31 W/m 10,5 km/h (2 Bft) 100,00 %
22.08.2016 08:18 15,2 C 14,4 C 13,3 C 93 % 15 lf 1023,1 hPa 0,0 l/m 0 min 2 min 30 W/m 10,5 km/h (2 Bft) 100,00 %
22.08.2016 08:20 15,2 C 14,4 C 13,3 C 93 % 15 lf 1023,1 hPa 0,2 l/m 0 min 2 min 28 W/m 6,3 km/h (2 Bft) 100,00 %
22.08.2016 08:22 15,2 C 14,4 C 13,3 C 93 % 15 lf 1023,2 hPa 0,0 l/m 0 min 2 min 27 W/m 12,6 km/h (3 Bft) 97,87 %
22.08.2016 08:24 15,1 C 14,4 C 13,3 C 93 % 15 lf 1023,2 hPa 0,0 l/m 0 min 2 min 28 W/m 10,5 km/h (2 Bft) 98,15 %
22.08.2016 08:26 15,1 C 14,4 C 13,3 C 93 % 15 lf 1023,2 hPa 0,0 l/m 0 min 2 min 30 W/m 12,6 km/h (3 Bft) 94,74 %
22.08.2016 08:28 15,1 C 14,4 C 13,3 C 94 % 15 lf 1023,2 hPa 0,0 l/m 0 min 2 min 33 W/m 8,4 km/h (2 Bft) 100,00 %
22.08.2016 08:30 15,1 C 14,4 C 13,3 C 94 % 15 lf 1023,2 hPa 0,0 l/m 0 min 2 min 32 W/m 10,5 km/h (2 Bft) 100,00 %
22.08.2016 08:32 15,1 C 14,4 C 13,3 C 94 % 15 lf 1023,2 hPa 0,0 l/m 0 min 2 min 37 W/m 12,6 km/h (3 Bft) 96,36 %
22.08.2016 08:34 15,1 C 14,4 C 13,3 C 94 % 15 lf 1023,2 hPa 0,0 l/m 0 min 2 min 46 W/m 10,5 km/h (2 Bft) 97,37 %
22.08.2016 08:36 15,1 C 14,4 C 13,3 C 94 % 15 lf 1023,3 hPa 0,0 l/m 0 min 2 min 55 W/m 14,6 km/h (3 Bft) 97,92 %
22.08.2016 08:38 15,1 C 14,4 C 13,3 C 94 % 15 lf 1023,3 hPa 0,0 l/m 0 min 2 min 56 W/m 16,7 km/h (3 Bft) 97,83 %
22.08.2016 08:40 15,1 C 14,4 C 13,9 C 94 % 15 lf 1023,3 hPa 0,0 l/m 0 min 0 min 55 W/m 12,6 km/h (3 Bft) 98,18 %
22.08.2016 08:42 15,1 C 14,4 C 13,9 C 94 % 15 lf 1023,3 hPa 0,0 l/m 0 min 0 min 62 W/m 10,5 km/h (2 Bft) 97,37 %
22.08.2016 08:44 15,1 C 14,4 C 13,9 C 94 % 15 lf 1023,3 hPa 0,0 l/m 0 min 0 min 63 W/m 8,4 km/h (2 Bft) 95,83 %
22.08.2016 08:46 15,1 C 14,4 C 13,9 C 94 % 15 lf 1023,4 hPa 0,0 l/m 0 min 2 min 60 W/m 12,6 km/h (3 Bft) 93,62 %
22.08.2016 08:48 15,1 C 14,4 C 13,9 C 94 % 15 lf 1023,4 hPa 0,0 l/m 0 min 2 min 55 W/m 10,5 km/h (2 Bft) 92,59 %
22.08.2016 08:50 15,1 C 14,4 C 13,9 C 95 % 15 lf 1023,4 hPa 0,0 l/m 0 min 2 min 43 W/m 14,6 km/h (3 Bft) 94,74 %
22.08.2016 08:52 15,1 C 14,4 C 13,9 C 95 % 15 lf 1023,4 hPa 0,0 l/m 0 min 2 min 41 W/m 12,6 km/h (3 Bft) 93,62 %
22.08.2016 08:54 15,1 C 14,4 C 13,9 C 95 % 15 lf 1023,4 hPa 0,2 l/m 0 min 2 min 50 W/m 14,6 km/h (3 Bft) 95,74 %
22.08.2016 08:56 15,1 C 14,4 C 13,9 C 95 % 15 lf 1023,4 hPa 0,0 l/m 0 min 2 min 60 W/m 10,5 km/h (2 Bft) 95,83 %
22.08.2016 08:58 15,1 C 14,4 C 13,9 C 95 % 15 lf 1023,5 hPa 0,0 l/m 0 min 2 min 66 W/m 8,4 km/h (2 Bft) 95,74 %
22.08.2016 09:00 15,1 C 15,0 C 13,9 C 95 % 15 lf 1023,6 hPa 0,0 l/m 0 min 2 min 71 W/m 16,7 km/h (3 Bft) 93,88 %
22.08.2016 09:02 15,1 C 15,0 C 13,9 C 95 % 15 lf 1023,6 hPa 0,0 l/m 0 min 2 min 73 W/m 12,6 km/h (3 Bft) 91,84 %
22.08.2016 09:04 15,1 C 15,0 C 13,9 C 95 % 15 lf 1023,7 hPa 0,0 l/m 0 min 2 min 78 W/m 18,8 km/h (3 Bft) 96,00 %
22.08.2016 09:06 15,2 C 15,0 C 13,9 C 95 % 15 lf 1023,7 hPa 0,0 l/m 0 min 2 min 73 W/m 12,6 km/h (3 Bft) 91,67 %
22.08.2016 09:08 15,2 C 15,0 C 13,9 C 95 % 15 lf 1023,7 hPa 0,0 l/m 0 min 0 min 68 W/m 10,5 km/h (2 Bft) 97,87 %
22.08.2016 09:10 15,2 C 15,0 C 13,9 C 95 % 15 lf 1023,7 hPa 0,0 l/m 0 min 2 min 65 W/m 18,8 km/h (3 Bft) 98,18 %
22.08.2016 09:12 15,2 C 15,0 C 13,9 C 95 % 15 lf 1023,7 hPa 0,0 l/m 0 min 0 min 77 W/m 16,7 km/h (3 Bft) 93,88 %
22.08.2016 09:14 15,2 C 15,0 C 13,9 C 95 % 15 lf 1023,7 hPa 0,0 l/m 0 min 2 min 85 W/m 12,6 km/h (3 Bft) 97,22 %
22.08.2016 09:16 15,2 C 15,0 C 13,9 C 96 % 15 lf 1023,7 hPa 0,0 l/m 0 min 0 min 83 W/m 10,5 km/h (2 Bft) 89,36 %
22.08.2016 09:18 15,2 C 15,0 C 14,4 C 96 % 15 lf 1023,6 hPa 0,2 l/m 0 min 0 min 101 W/m 14,6 km/h (3 Bft) 96,36 %
22.08.2016 09:20 15,2 C 15,0 C 14,4 C 96 % 15 lf 1023,7 hPa 0,0 l/m 0 min 0 min 118 W/m 14,6 km/h (3 Bft) 97,87 %
22.08.2016 09:22 15,2 C 15,0 C 14,4 C 96 % 15 lf 1023,7 hPa 0,0 l/m 0 min 0 min 135 W/m 20,9 km/h (4 Bft) 93,62 %
22.08.2016 09:24 15,3 C 15,6 C 14,4 C 96 % 15 lf 1023,7 hPa 0,0 l/m 0 min 0 min 143 W/m 12,6 km/h (3 Bft) 97,96 %
22.08.2016 09:26 15,3 C 15,0 C 14,4 C 96 % 15 lf 1023,7 hPa 0,0 l/m 0 min 0 min 127 W/m 14,6 km/h (3 Bft) 94,44 %
22.08.2016 09:28 15,3 C 15,0 C 14,4 C 96 % 15 lf 1023,7 hPa 0,0 l/m 0 min 0 min 76 W/m 14,6 km/h (3 Bft) 95,74 %
22.08.2016 09:30 15,3 C 15,0 C 14,4 C 96 % 15 lf 1023,7 hPa 0,0 l/m 0 min 0 min 69 W/m 14,6 km/h (3 Bft) 98,18 %
22.08.2016 09:32 15,3 C 15,0 C 14,4 C 96 % 15 lf 1023,6 hPa 0,0 l/m 0 min 0 min 82 W/m 14,6 km/h (3 Bft) 93,62 %
22.08.2016 09:34 15,3 C 15,0 C 14,4 C 96 % 15 lf 1023,7 hPa 0,0 l/m 0 min 0 min 73 W/m 12,6 km/h (3 Bft) 94,00 %
22.08.2016 09:36 15,4 C 15,0 C 14,4 C 96 % 15 lf 1023,7 hPa 0,0 l/m 0 min 0 min 73 W/m 10,5 km/h (2 Bft) 97,22 %
22.08.2016 09:38 15,4 C 15,6 C 14,4 C 96 % 15 lf 1023,7 hPa 0,0 l/m 0 min 0 min 83 W/m 10,5 km/h (2 Bft) 97,83 %
22.08.2016 09:40 15,4 C 15,6 C 14,4 C 96 % 15 lf 1023,7 hPa 0,0 l/m 0 min 0 min 100 W/m 14,6 km/h (3 Bft) 91,49 %
22.08.2016 09:42 15,4 C 15,6 C 14,4 C 96 % 15 lf 1023,7 hPa 0,0 l/m 0 min 0 min 84 W/m 10,5 km/h (2 Bft) 98,18 %
22.08.2016 09:44 15,4 C 15,6 C 14,4 C 96 % 15 lf 1023,7 hPa 0,0 l/m 0 min 0 min 84 W/m 14,6 km/h (3 Bft) 94,00 %
22.08.2016 09:46 15,4 C 15,6 C 14,4 C 96 % 15 lf 1023,6 hPa 0,0 l/m 0 min 0 min 90 W/m 10,5 km/h (2 Bft) 97,22 %
22.08.2016 09:48 15,4 C 15,6 C 15,0 C 97 % 15 lf 1023,5 hPa 0,0 l/m 0 min 0 min 97 W/m 14,6 km/h (3 Bft) 97,87 %
22.08.2016 09:50 15,5 C 15,6 C 14,4 C 97 % 15 lf 1023,6 hPa 0,0 l/m 0 min 0 min 93 W/m 20,9 km/h (4 Bft) 88,89 %
22.08.2016 09:52 15,5 C 15,6 C 14,4 C 97 % 15 lf 1023,5 hPa 0,0 l/m 0 min 0 min 95 W/m 12,6 km/h (3 Bft) 96,00 %
22.08.2016 09:54 15,5 C 15,6 C 14,4 C 97 % 15 lf 1023,5 hPa 0,0 l/m 0 min 0 min 106 W/m 14,6 km/h (3 Bft) 97,22 %
22.08.2016 09:56 15,5 C 15,6 C 14,4 C 97 % 15 lf 1023,6 hPa 0,0 l/m 0 min 0 min 134 W/m 16,7 km/h (3 Bft) 97,87 %
22.08.2016 09:58 15,6 C 16,1 C 15,0 C 97 % 15 lf 1023,6 hPa 0,0 l/m 0 min 0 min 151 W/m 14,6 km/h (3 Bft) 98,18 %
22.08.2016 10:00 15,6 C 15,6 C 15,0 C 97 % 15 lf 1023,6 hPa 0,0 l/m 0 min 0 min 146 W/m 23,0 km/h (4 Bft) 95,92 %
22.08.2016 10:02 15,6 C 16,1 C 15,0 C 97 % 15 lf 1023,6 hPa 0,0 l/m 0 min 0 min 137 W/m 16,7 km/h (3 Bft) 94,74 %
22.08.2016 10:04 15,6 C 15,6 C 15,0 C 97 % 15 lf 1023,6 hPa 0,0 l/m 0 min 0 min 120 W/m 18,8 km/h (3 Bft) 94,00 %
22.08.2016 10:06 15,7 C 15,6 C 15,0 C 97 % 15 lf 1023,6 hPa 0,0 l/m 0 min 0 min 109 W/m 14,6 km/h (3 Bft) 92,00 %
22.08.2016 10:08 15,7 C 15,6 C 15,0 C 97 % 15 lf 1023,6 hPa 0,0 l/m 0 min 0 min 128 W/m 14,6 km/h (3 Bft) 87,50 %
22.08.2016 10:10 15,7 C 16,1 C 15,0 C 97 % 15 lf 1023,7 hPa 0,0 l/m 0 min 0 min 118 W/m 14,6 km/h (3 Bft) 97,14 %
22.08.2016 10:12 15,7 C 16,1 C 15,0 C 97 % 15 lf 1023,7 hPa 0,0 l/m 0 min 0 min 107 W/m 16,7 km/h (3 Bft) 92,59 %
22.08.2016 10:14 15,7 C 15,6 C 15,0 C 97 % 15 lf 1023,7 hPa 0,0 l/m 0 min 0 min 86 W/m 8,4 km/h (2 Bft) 94,00 %
22.08.2016 10:16 15,7 C 15,6 C 15,0 C 97 % 15 lf 1023,7 hPa 0,0 l/m 0 min 0 min 82 W/m 18,8 km/h (3 Bft) 95,83 %
22.08.2016 10:18 15,8 C 15,6 C 15,0 C 97 % 15 lf 1023,7 hPa 0,0 l/m 0 min 0 min 100 W/m 18,8 km/h (3 Bft) 94,29 %
22.08.2016 10:20 15,8 C 15,6 C 15,0 C 97 % 15 lf 1023,7 hPa 0,0 l/m 0 min 0 min 104 W/m 10,5 km/h (2 Bft) 96,36 %
22.08.2016 10:22 15,8 C 15,6 C 15,0 C 97 % 15 lf 1023,7 hPa 0,0 l/m 0 min 0 min 110 W/m 14,6 km/h (3 Bft) 93,88 %
22.08.2016 10:24 15,8 C 16,1 C 15,0 C 97 % 15 lf 1023,7 hPa 0,0 l/m 0 min 0 min 100 W/m 20,9 km/h (4 Bft) 93,75 %
22.08.2016 10:26 15,8 C 16,1 C 15,0 C 97 % 15 lf 1023,8 hPa 0,0 l/m 0 min 0 min 116 W/m 18,8 km/h (3 Bft) 94,29 %
22.08.2016 10:28 15,8 C 16,1 C 15,0 C 97 % 15 lf 1023,8 hPa 0,0 l/m 0 min 0 min 129 W/m 12,6 km/h (3 Bft) 92,73 %
22.08.2016 10:30 15,9 C 16,1 C 15,6 C 97 % 15 lf 1023,9 hPa 0,0 l/m 0 min 0 min 130 W/m 12,6 km/h (3 Bft) 96,00 %
22.08.2016 10:32 15,9 C 16,7 C 15,6 C 97 % 15 lf 1023,8 hPa 0,0 l/m 0 min 0 min 156 W/m 14,6 km/h (3 Bft) 97,92 %
22.08.2016 10:34 15,9 C 16,7 C 15,6 C 97 % 15 lf 1023,8 hPa 0,0 l/m 0 min 0 min 144 W/m 12,6 km/h (3 Bft) 94,29 %
22.08.2016 10:36 16,0 C 16,7 C 15,6 C 97 % 15 lf 1023,8 hPa 0,0 l/m 0 min 0 min 138 W/m 16,7 km/h (3 Bft) 95,74 %
22.08.2016 10:38 16,0 C 16,7 C 15,6 C 97 % 15 lf 1023,9 hPa 0,0 l/m 0 min 0 min 114 W/m 18,8 km/h (3 Bft) 94,44 %
22.08.2016 10:40 16,0 C 16,7 C 15,6 C 97 % 15 lf 1023,8 hPa 0,0 l/m 0 min 0 min 119 W/m 10,5 km/h (2 Bft) 96,00 %
22.08.2016 10:42 16,1 C 16,7 C 15,6 C 97 % 15 lf 1023,8 hPa 0,0 l/m 0 min 0 min 112 W/m 12,6 km/h (3 Bft) 89,58 %
22.08.2016 10:44 16,1 C 16,7 C 15,0 C 97 % 15 lf 1023,7 hPa 0,0 l/m 0 min 0 min 96 W/m 14,6 km/h (3 Bft) 97,14 %
22.08.2016 10:46 16,1 C 16,7 C 15,6 C 97 % 15 lf 1023,7 hPa 0,0 l/m 0 min 0 min 98 W/m 12,6 km/h (3 Bft) 94,44 %
22.08.2016 10:48 16,1 C 16,7 C 15,6 C 97 % 15 lf 1023,8 hPa 0,0 l/m 0 min 0 min 95 W/m 12,6 km/h (3 Bft) 98,00 %
22.08.2016 10:50 16,1 C 16,7 C 15,6 C 97 % 15 lf 1023,8 hPa 0,0 l/m 0 min 0 min 90 W/m 14,6 km/h (3 Bft) 95,83 %
22.08.2016 10:52 16,1 C 16,1 C 15,6 C 97 % 15 lf 1023,9 hPa 0,0 l/m 0 min 0 min 90 W/m 18,8 km/h (3 Bft) 100,00 %
22.08.2016 10:54 16,2 C 16,7 C 15,6 C 97 % 15 lf 1023,8 hPa 0,0 l/m 0 min 0 min 98 W/m 16,7 km/h (3 Bft) 94,55 %
22.08.2016 10:56 16,2 C 16,7 C 15,0 C 97 % 15 lf 1023,9 hPa 0,0 l/m 0 min 0 min 97 W/m 12,6 km/h (3 Bft) 98,00 %
22.08.2016 10:58 16,2 C 16,7 C 15,6 C 97 % 15 lf 1023,9 hPa 0,0 l/m 0 min 0 min 90 W/m 10,5 km/h (2 Bft) 95,74 %
22.08.2016 11:00 16,2 C 16,7 C 15,6 C 97 % 14 lf 1023,9 hPa 0,0 l/m 0 min 0 min 85 W/m 12,6 km/h (3 Bft) 97,37 %
22.08.2016 11:02 16,2 C 16,7 C 15,6 C 97 % 14 lf 1023,9 hPa 0,0 l/m 0 min 0 min 109 W/m 14,6 km/h (3 Bft) 98,00 %
22.08.2016 11:04 16,2 C 16,7 C 15,6 C 97 % 12 lf 1023,9 hPa 0,0 l/m 0 min 0 min 122 W/m 12,6 km/h (3 Bft) 98,00 %
22.08.2016 11:06 16,2 C 16,7 C 15,6 C 97 % 11 lf 1023,9 hPa 0,0 l/m 0 min 0 min 127 W/m 16,7 km/h (3 Bft) 97,87 %
22.08.2016 11:08 16,3 C 16,7 C 15,6 C 97 % 10 lf 1023,9 hPa 0,0 l/m 0 min 0 min 127 W/m 10,5 km/h (2 Bft) 97,67 %
22.08.2016 11:10 16,3 C 16,7 C 15,6 C 97 % 8 lf 1023,9 hPa 0,0 l/m 0 min 0 min 122 W/m 14,6 km/h (3 Bft) 97,96 %
22.08.2016 11:12 16,3 C 16,7 C 16,1 C 97 % 5 lf 1023,9 hPa 0,0 l/m 0 min 0 min 166 W/m 10,5 km/h (2 Bft) 100,00 %
22.08.2016 11:14 16,3 C 16,7 C 16,1 C 97 % 3 lf 1023,9 hPa 0,0 l/m 0 min 0 min 186 W/m 12,6 km/h (3 Bft) 97,87 %
22.08.2016 11:16 16,4 C 17,2 C 16,1 C 97 % 3 lf 1024,0 hPa 0,0 l/m 0 min 0 min 170 W/m 18,8 km/h (3 Bft) 100,00 %
22.08.2016 11:18 16,4 C 17,2 C 16,1 C 97 % 2 lf 1023,9 hPa 0,0 l/m 0 min 0 min 136 W/m 14,6 km/h (3 Bft) 100,00 %
22.08.2016 11:20 16,4 C 17,2 C 16,1 C 97 % 2 lf 1024,0 hPa 0,0 l/m 0 min 0 min 122 W/m 10,5 km/h (2 Bft) 100,00 %
22.08.2016 11:22 16,5 C 17,2 C 16,1 C 97 % 2 lf 1024,0 hPa 0,0 l/m 0 min 0 min 126 W/m 12,6 km/h (3 Bft) 100,00 %
22.08.2016 11:24 16,5 C 17,2 C 16,1 C 97 % 2 lf 1024,0 hPa 0,0 l/m 0 min 0 min 120 W/m 10,5 km/h (2 Bft) 97,87 %
22.08.2016 11:26 16,6 C 17,2 C 16,1 C 97 % 2 lf 1024,0 hPa 0,0 l/m 0 min 0 min 119 W/m 16,7 km/h (3 Bft) 97,67 %
22.08.2016 11:28 16,6 C 17,2 C 16,1 C 97 % 2 lf 1024,0 hPa 0,0 l/m 0 min 0 min 117 W/m 25,1 km/h (4 Bft) 100,00 %
22.08.2016 11:30 16,6 C 16,7 C 16,1 C 97 % 6 lf 1023,9 hPa 0,0 l/m 0 min 2 min 108 W/m 18,8 km/h (3 Bft) 95,83 %
22.08.2016 11:32 16,6 C 16,7 C 15,6 C 97 % 6 lf 1024,0 hPa 0,0 l/m 0 min 2 min 98 W/m 23,0 km/h (4 Bft) 95,74 %
22.08.2016 11:34 16,7 C 17,2 C 15,6 C 97 % 3 lf 1024,0 hPa 0,0 l/m 0 min 0 min 87 W/m 10,5 km/h (2 Bft) 100,00 %
22.08.2016 11:36 16,7 C 17,2 C 15,6 C 97 % 2 lf 1024,0 hPa 0,0 l/m 0 min 0 min 94 W/m 12,6 km/h (3 Bft) 100,00 %
22.08.2016 11:38 16,7 C 17,2 C 15,6 C 97 % 3 lf 1024,0 hPa 0,0 l/m 0 min 0 min 96 W/m 12,6 km/h (3 Bft) 94,00 %
22.08.2016 11:40 16,7 C 17,2 C 16,1 C 97 % 3 lf 1024,0 hPa 0,0 l/m 0 min 0 min 98 W/m 23,0 km/h (4 Bft) 100,00 %
22.08.2016 11:42 16,7 C 17,2 C 15,6 C 97 % 3 lf 1024,0 hPa 0,0 l/m 0 min 0 min 108 W/m 18,8 km/h (3 Bft) 97,92 %
22.08.2016 11:44 16,8 C 17,2 C 16,1 C 97 % 2 lf 1024,0 hPa 0,0 l/m 0 min 0 min 107 W/m 16,7 km/h (3 Bft) 95,74 %
22.08.2016 11:46 16,8 C 16,7 C 16,1 C 97 % 2 lf 1024,0 hPa 0,0 l/m 0 min 0 min 98 W/m 23,0 km/h (4 Bft) 97,62 %
22.08.2016 11:48 16,8 C 16,7 C 16,1 C 97 % 1 lf 1024,0 hPa 0,0 l/m 0 min 0 min 110 W/m 18,8 km/h (3 Bft) 94,00 %
22.08.2016 11:50 16,8 C 17,2 C 16,1 C 97 % 1 lf 1024,0 hPa 0,0 l/m 0 min 0 min 130 W/m 33,5 km/h (5 Bft) 93,62 %
22.08.2016 11:52 16,8 C 17,2 C 16,1 C 97 % 1 lf 1023,8 hPa 0,0 l/m 0 min 2 min 153 W/m 31,4 km/h (5 Bft) 95,83 %
22.08.2016 11:54 16,8 C 17,2 C 16,1 C 97 % 1 lf 1024,0 hPa 0,0 l/m 0 min 0 min 149 W/m 18,8 km/h (3 Bft) 97,87 %
22.08.2016 11:56 16,9 C 17,2 C 16,1 C 97 % 1 lf 1023,9 hPa 0,0 l/m 0 min 0 min 139 W/m 14,6 km/h (3 Bft) 97,67 %
22.08.2016 11:58 16,9 C 17,2 C 16,1 C 97 % 1 lf 1024,0 hPa 0,0 l/m 0 min 0 min 154 W/m 20,9 km/h (4 Bft) 97,96 %
22.08.2016 12:00 16,9 C 17,8 C 16,7 C 97 % 1 lf 1024,0 hPa 0,0 l/m 0 min 0 min 165 W/m 10,5 km/h (2 Bft) 96,00 %
22.08.2016 12:02 17,0 C 17,8 C 16,7 C 97 % 1 lf 1024,0 hPa 0,0 l/m 0 min 0 min 157 W/m 14,6 km/h (3 Bft) 96,00 %
22.08.2016 12:05 17,1 C 17,8 C 16,7 C 97 % 1 lf 1024,1 hPa 0,0 l/m 0 min 0 min 148 W/m 14,6 km/h (3 Bft) 96,15 %
22.08.2016 12:06 17,1 C 17,8 C 16,1 C 97 % 1 lf 1024,1 hPa 0,0 l/m 0 min 0 min 124 W/m 12,6 km/h (3 Bft) 95,00 %
22.08.2016 12:08 17,1 C 17,8 C 16,1 C 97 % 1 lf 1024,1 hPa 0,0 l/m 0 min 0 min 119 W/m 25,1 km/h (4 Bft) 97,87 %
22.08.2016 12:10 17,1 C 18,3 C 16,1 C 96 % 1 lf 1024,1 hPa 0,0 l/m 0 min 0 min 119 W/m 29,3 km/h (5 Bft) 97,83 %
22.08.2016 12:12 17,1 C 18,3 C 16,1 C 96 % 1 lf 1024,1 hPa 0,0 l/m 0 min 0 min 129 W/m 25,1 km/h (4 Bft) 97,87 %
22.08.2016 12:14 17,1 C 18,3 C 16,1 C 96 % 1 lf 1024,0 hPa 0,0 l/m 0 min 2 min 147 W/m 20,9 km/h (4 Bft) 97,87 %
22.08.2016 12:16 17,1 C 18,3 C 16,1 C 96 % 1 lf 1024,0 hPa 0,0 l/m 0 min 0 min 157 W/m 18,8 km/h (3 Bft) 95,74 %
22.08.2016 12:18 17,2 C 18,3 C 16,1 C 96 % 3 lf 1024,0 hPa 0,0 l/m 0 min 2 min 171 W/m 23,0 km/h (4 Bft) 100,00 %
22.08.2016 12:20 17,2 C 18,3 C 16,1 C 96 % 1 lf 1024,0 hPa 0,0 l/m 0 min 2 min 159 W/m 16,7 km/h (3 Bft) 97,87 %
22.08.2016 12:22 17,2 C 18,3 C 16,7 C 96 % 1 lf 1023,9 hPa 0,0 l/m 0 min 2 min 150 W/m 16,7 km/h (3 Bft) 97,83 %
22.08.2016 12:24 17,3 C 18,3 C 16,7 C 96 % 1 lf 1024,0 hPa 0,0 l/m 0 min 0 min 169 W/m 25,1 km/h (4 Bft) 97,87 %
22.08.2016 12:26 17,3 C 18,9 C 16,7 C 96 % 1 lf 1024,0 hPa 0,0 l/m 0 min 0 min 184 W/m 18,8 km/h (3 Bft) 95,74 %
22.08.2016 12:28 17,3 C 18,9 C 16,7 C 96 % 1 lf 1024,0 hPa 0,0 l/m 0 min 0 min 180 W/m 23,0 km/h (4 Bft) 97,87 %
22.08.2016 12:30 17,4 C 18,9 C 16,7 C 95 % 1 lf 1024,0 hPa 0,0 l/m 0 min 0 min 176 W/m 18,8 km/h (3 Bft) 95,74 %
22.08.2016 12:32 17,4 C 18,9 C 16,7 C 95 % 1 lf 1024,0 hPa 0,0 l/m 0 min 0 min 174 W/m 14,6 km/h (3 Bft) 93,48 %
22.08.2016 12:34 17,4 C 18,9 C 16,7 C 95 % 1 lf 1024,0 hPa 0,0 l/m 0 min 0 min 166 W/m 14,6 km/h (3 Bft) 95,74 %
22.08.2016 12:36 17,5 C 18,9 C 16,7 C 95 % 1 lf 1024,0 hPa 0,0 l/m 0 min 0 min 158 W/m 12,6 km/h (3 Bft) 97,87 %
22.08.2016 12:38 17,5 C 18,9 C 16,7 C 95 % 1 lf 1024,0 hPa 0,0 l/m 0 min 0 min 162 W/m 20,9 km/h (4 Bft) 97,87 %
22.08.2016 12:40 17,6 C 18,9 C 16,7 C 95 % 1 lf 1024,0 hPa 0,0 l/m 0 min 0 min 182 W/m 16,7 km/h (3 Bft) 91,49 %
22.08.2016 12:42 17,6 C 18,9 C 16,7 C 95 % 1 lf 1024,1 hPa 0,0 l/m 0 min 0 min 221 W/m 31,4 km/h (5 Bft) 97,87 %
22.08.2016 12:44 17,6 C 18,9 C 16,7 C 94 % 1 lf 1024,1 hPa 0,0 l/m 0 min 0 min 237 W/m 25,1 km/h (4 Bft) 97,83 %
22.08.2016 12:46 17,6 C 19,4 C 17,2 C 94 % 1 lf 1024,1 hPa 0,0 l/m 0 min 0 min 267 W/m 20,9 km/h (4 Bft) 95,74 %
22.08.2016 12:48 17,7 C 19,4 C 17,8 C 94 % 1 lf 1024,1 hPa 0,0 l/m 0 min 0 min 279 W/m 14,6 km/h (3 Bft) 95,74 %
22.08.2016 12:50 17,8 C 20,6 C 17,8 C 94 % 0 lf 1024,0 hPa 0,0 l/m 0 min 0 min 331 W/m 14,6 km/h (3 Bft) 93,62 %
22.08.2016 12:52 17,8 C 20,6 C 17,8 C 94 % 1 lf 1024,1 hPa 0,0 l/m 0 min 0 min 316 W/m 18,8 km/h (3 Bft) 91,49 %
22.08.2016 12:54 17,9 C 20,6 C 17,8 C 94 % 1 lf 1024,1 hPa 0,0 l/m 0 min 0 min 270 W/m 20,9 km/h (4 Bft) 95,74 %
22.08.2016 12:56 18,0 C 20,6 C 17,8 C 93 % 0 lf 1024,0 hPa 0,0 l/m 0 min 0 min 334 W/m 20,9 km/h (4 Bft) 93,48 %
22.08.2016 12:58 18,1 C 21,1 C 18,3 C 93 % 0 lf 1024,1 hPa 0,0 l/m 0 min 0 min 343 W/m 14,6 km/h (3 Bft) 95,74 %
22.08.2016 13:00 18,2 C 20,6 C 17,8 C 93 % 1 lf 1024,1 hPa 0,0 l/m 0 min 0 min 215 W/m 20,9 km/h (4 Bft) 95,74 %
22.08.2016 13:02 18,2 C 20,0 C 17,8 C 93 % 1 lf 1024,1 hPa 0,0 l/m 0 min 0 min 157 W/m 18,8 km/h (3 Bft) 89,36 %
22.08.2016 13:04 18,2 C 20,0 C 17,8 C 93 % 1 lf 1024,1 hPa 0,0 l/m 0 min 0 min 182 W/m 23,0 km/h (4 Bft) 93,62 %
22.08.2016 13:06 18,3 C 19,4 C 17,8 C 92 % 1 lf 1024,1 hPa 0,0 l/m 0 min 0 min 174 W/m 25,1 km/h (4 Bft) 93,62 %
22.08.2016 13:08 18,3 C 19,4 C 17,8 C 92 % 1 lf 1024,2 hPa 0,0 l/m 0 min 0 min 155 W/m 20,9 km/h (4 Bft) 95,65 %
22.08.2016 13:10 18,3 C 19,4 C 17,8 C 92 % 1 lf 1024,2 hPa 0,0 l/m 0 min 0 min 166 W/m 25,1 km/h (4 Bft) 95,74 %
22.08.2016 13:12 18,3 C 19,4 C 17,8 C 91 % 1 lf 1024,2 hPa 0,0 l/m 0 min 0 min 163 W/m 23,0 km/h (4 Bft) 95,74 %
22.08.2016 13:14 18,3 C 19,4 C 17,8 C 91 % 1 lf 1024,2 hPa 0,0 l/m 0 min 0 min 162 W/m 27,2 km/h (4 Bft) 91,49 %
22.08.2016 13:16 18,4 C 19,4 C 17,8 C 91 % 1 lf 1024,1 hPa 0,0 l/m 0 min 0 min 173 W/m 18,8 km/h (3 Bft) 93,62 %
22.08.2016 13:18 18,4 C 20,0 C 18,3 C 91 % 1 lf 1024,2 hPa 0,0 l/m 0 min 0 min 201 W/m 16,7 km/h (3 Bft) 87,23 %
22.08.2016 13:20 18,4 C 20,0 C 18,3 C 91 % 0 lf 1024,2 hPa 0,0 l/m 0 min 0 min 265 W/m 25,1 km/h (4 Bft) 93,48 %
22.08.2016 13:22 18,5 C 20,6 C 18,9 C 91 % 0 lf 1024,2 hPa 0,0 l/m 0 min 0 min 313 W/m 16,7 km/h (3 Bft) 93,62 %
22.08.2016 13:24 18,6 C 21,1 C 19,4 C 91 % 0 lf 1024,1 hPa 0,0 l/m 0 min 0 min 349 W/m 14,6 km/h (3 Bft) 95,74 %
22.08.2016 13:26 18,7 C 21,7 C 20,0 C 91 % 0 lf 1024,1 hPa 0,0 l/m 0 min 0 min 339 W/m 20,9 km/h (4 Bft) 91,49 %
22.08.2016 13:28 18,7 C 21,1 C 19,4 C 91 % 0 lf 1024,2 hPa 0,0 l/m 0 min 0 min 303 W/m 25,1 km/h (4 Bft) 95,74 %
22.08.2016 13:30 18,7 C 21,1 C 19,4 C 90 % 0 lf 1024,3 hPa 0,0 l/m 0 min 0 min 269 W/m 27,2 km/h (4 Bft) 93,62 %
22.08.2016 13:32 18,8 C 21,1 C 19,4 C 90 % 0 lf 1024,3 hPa 0,0 l/m 0 min 0 min 235 W/m 23,0 km/h (4 Bft) 95,65 %
22.08.2016 13:34 18,8 C 21,1 C 18,9 C 90 % 0 lf 1024,2 hPa 0,0 l/m 0 min 0 min 194 W/m 18,8 km/h (3 Bft) 97,87 %
22.08.2016 13:36 18,9 C 20,6 C 18,9 C 89 % 0 lf 1024,3 hPa 0,0 l/m 0 min 0 min 184 W/m 16,7 km/h (3 Bft) 97,87 %
22.08.2016 13:38 18,9 C 20,6 C 18,9 C 89 % 0 lf 1024,3 hPa 0,0 l/m 0 min 0 min 172 W/m 23,0 km/h (4 Bft) 93,62 %
22.08.2016 13:40 18,9 C 20,6 C 18,9 C 89 % 0 lf 1024,4 hPa 0,0 l/m 0 min 0 min 180 W/m 18,8 km/h (3 Bft) 95,74 %
22.08.2016 13:42 18,9 C 20,6 C 18,9 C 89 % 0 lf 1024,4 hPa 0,0 l/m 0 min 0 min 183 W/m 18,8 km/h (3 Bft) 95,65 %
22.08.2016 13:44 19,0 C 20,6 C 18,9 C 89 % 0 lf 1024,4 hPa 0,0 l/m 0 min 0 min 173 W/m 10,5 km/h (2 Bft) 97,87 %
22.08.2016 13:46 19,1 C 20,6 C 19,4 C 89 % 0 lf 1024,3 hPa 0,0 l/m 0 min 0 min 190 W/m 12,6 km/h (3 Bft) 95,74 %
22.08.2016 13:48 19,1 C 21,1 C 19,4 C 89 % 0 lf 1024,4 hPa 0,0 l/m 0 min 0 min 212 W/m 23,0 km/h (4 Bft) 95,74 %
22.08.2016 13:50 19,1 C 20,6 C 19,4 C 88 % 0 lf 1024,4 hPa 0,0 l/m 0 min 0 min 217 W/m 20,9 km/h (4 Bft) 95,74 %
22.08.2016 13:52 19,1 C 20,6 C 19,4 C 88 % 0 lf 1024,4 hPa 0,0 l/m 0 min 0 min 179 W/m 20,9 km/h (4 Bft) 100,00 %
22.08.2016 13:54 19,2 C 20,6 C 19,4 C 88 % 0 lf 1024,4 hPa 0,0 l/m 0 min 0 min 163 W/m 23,0 km/h (4 Bft) 97,87 %
22.08.2016 13:56 19,2 C 20,6 C 18,9 C 88 % 0 lf 1024,3 hPa 0,0 l/m 0 min 0 min 164 W/m 23,0 km/h (4 Bft) 95,65 %
22.08.2016 13:58 19,2 C 20,6 C 19,4 C 87 % 0 lf 1024,3 hPa 0,0 l/m 0 min 0 min 164 W/m 23,0 km/h (4 Bft) 93,62 %
22.08.2016 14:00 19,2 C 20,6 C 18,9 C 87 % 0 lf 1024,3 hPa 0,0 l/m 0 min 0 min 161 W/m 16,7 km/h (3 Bft) 93,62 %
22.08.2016 14:02 19,2 C 20,6 C 19,4 C 87 % 0 lf 1024,3 hPa 0,0 l/m 0 min 0 min 184 W/m 20,9 km/h (4 Bft) 93,62 %
22.08.2016 14:04 19,2 C 20,6 C 19,4 C 87 % 0 lf 1024,3 hPa 0,0 l/m 0 min 0 min 202 W/m 14,6 km/h (3 Bft) 100,00 %
22.08.2016 14:06 19,2 C 21,1 C 19,4 C 87 % 0 lf 1024,2 hPa 0,0 l/m 0 min 0 min 224 W/m 16,7 km/h (3 Bft) 95,65 %
22.08.2016 14:08 19,3 C 21,1 C 20,0 C 87 % 0 lf 1024,3 hPa 0,0 l/m 0 min 0 min 316 W/m 18,8 km/h (3 Bft) 100,00 %
22.08.2016 14:10 19,3 C 22,2 C 20,6 C 87 % 5 lf 1024,3 hPa 0,0 l/m 0 min 0 min 367 W/m 18,8 km/h (3 Bft) 97,87 %
22.08.2016 14:12 19,4 C 22,8 C 21,1 C 87 % 3 lf 1024,3 hPa 0,0 l/m 2 min 0 min 376 W/m 10,5 km/h (2 Bft) 97,87 %
22.08.2016 14:14 19,4 C 22,8 C 21,7 C 87 % 0 lf 1024,3 hPa 0,0 l/m 2 min 2 min 426 W/m 12,6 km/h (3 Bft) 97,87 %
22.08.2016 14:16 19,6 C 23,3 C 22,2 C 88 % 0 lf 1024,4 hPa 0,0 l/m 2 min 2 min 449 W/m 12,6 km/h (3 Bft) 97,87 %
22.08.2016 14:18 19,6 C 23,9 C 22,8 C 88 % 0 lf 1024,4 hPa 0,0 l/m 2 min 0 min 461 W/m 12,6 km/h (3 Bft) 97,83 %
22.08.2016 14:20 19,7 C 24,4 C 23,3 C 88 % 0 lf 1024,3 hPa 0,0 l/m 2 min 0 min 530 W/m 18,8 km/h (3 Bft) 100,00 %
22.08.2016 14:22 19,9 C 25,6 C 23,9 C 88 % 0 lf 1024,4 hPa 0,0 l/m 2 min 0 min 655 W/m 16,7 km/h (3 Bft) 93,62 %
22.08.2016 14:24 20,0 C 26,1 C 23,9 C 87 % 1 lf 1024,4 hPa 0,0 l/m 2 min 0 min 672 W/m 12,6 km/h (3 Bft) 95,74 %
22.08.2016 14:26 20,1 C 25,6 C 23,9 C 87 % 0 lf 1024,6 hPa 0,0 l/m 2 min 0 min 380 W/m 12,6 km/h (3 Bft) 100,00 %
22.08.2016 14:28 20,3 C 25,0 C 23,3 C 87 % 0 lf 1024,6 hPa 0,0 l/m 0 min 0 min 312 W/m 16,7 km/h (3 Bft) 100,00 %
22.08.2016 14:30 20,3 C 23,9 C 22,8 C 86 % 0 lf 1024,6 hPa 0,0 l/m 0 min 2 min 308 W/m 27,2 km/h (4 Bft) 97,83 %
22.08.2016 14:32 20,4 C 23,3 C 22,2 C 85 % 0 lf 1024,6 hPa 0,0 l/m 0 min 2 min 304 W/m 20,9 km/h (4 Bft) 97,87 %
22.08.2016 14:34 20,4 C 23,3 C 22,2 C 84 % 0 lf 1024,6 hPa 0,0 l/m 0 min 2 min 278 W/m 14,6 km/h (3 Bft) 95,74 %
22.08.2016 14:36 20,5 C 22,8 C 21,7 C 84 % 0 lf 1024,6 hPa 0,0 l/m 0 min 0 min 266 W/m 23,0 km/h (4 Bft) 97,87 %
22.08.2016 14:38 20,6 C 23,3 C 21,7 C 84 % 0 lf 1024,6 hPa 0,0 l/m 0 min 0 min 271 W/m 18,8 km/h (3 Bft) 95,74 %
22.08.2016 14:40 20,6 C 22,8 C 21,7 C 84 % 0 lf 1024,6 hPa 0,0 l/m 0 min 0 min 280 W/m 16,7 km/h (3 Bft) 95,74 %
22.08.2016 14:42 20,6 C 22,8 C 21,7 C 83 % 0 lf 1024,6 hPa 0,0 l/m 0 min 0 min 299 W/m 23,0 km/h (4 Bft) 97,83 %
22.08.2016 14:44 20,6 C 23,3 C 22,2 C 83 % 0 lf 1024,6 hPa 0,0 l/m 0 min 0 min 339 W/m 12,6 km/h (3 Bft) 93,62 %
22.08.2016 14:46 20,7 C 23,3 C 22,8 C 83 % 0 lf 1024,6 hPa 0,0 l/m 2 min 0 min 404 W/m 12,6 km/h (3 Bft) 95,74 %
22.08.2016 14:48 20,7 C 23,3 C 22,8 C 83 % 0 lf 1024,6 hPa 0,0 l/m 2 min 0 min 427 W/m 14,6 km/h (3 Bft) 95,74 %
22.08.2016 14:50 20,8 C 23,9 C 23,3 C 83 % 0 lf 1024,6 hPa 0,0 l/m 2 min 0 min 378 W/m 14,6 km/h (3 Bft) 93,62 %
22.08.2016 14:52 20,8 C 23,3 C 23,3 C 83 % 0 lf 1024,6 hPa 0,0 l/m 0 min 0 min 338 W/m 12,6 km/h (3 Bft) 95,74 %
22.08.2016 14:54 20,9 C 23,9 C 23,3 C 83 % 0 lf 1024,6 hPa 0,0 l/m 0 min 0 min 279 W/m 8,4 km/h (2 Bft) 95,65 %
22.08.2016 14:56 20,9 C 23,3 C 22,8 C 84 % 0 lf 1024,6 hPa 0,0 l/m 0 min 0 min 238 W/m 14,6 km/h (3 Bft) 93,62 %
22.08.2016 14:58 21,0 C 22,8 C 22,2 C 83 % 0 lf 1024,6 hPa 0,0 l/m 0 min 0 min 215 W/m 18,8 km/h (3 Bft) 95,74 %
22.08.2016 15:00 21,0 C 22,8 C 21,7 C 83 % 0 lf 1024,6 hPa 0,0 l/m 0 min 0 min 196 W/m 18,8 km/h (3 Bft) 93,62 %
22.08.2016 15:02 21,0 C 22,8 C 21,1 C 82 % 0 lf 1024,6 hPa 0,0 l/m 0 min 0 min 185 W/m 20,9 km/h (4 Bft) 95,74 %
22.08.2016 15:04 21,0 C 22,2 C 21,1 C 82 % 0 lf 1024,8 hPa 0,0 l/m 0 min 0 min 176 W/m 16,7 km/h (3 Bft) 93,62 %
22.08.2016 15:06 21,0 C 22,2 C 21,1 C 81 % 0 lf 1024,8 hPa 0,0 l/m 0 min 0 min 187 W/m 16,7 km/h (3 Bft) 93,48 %
22.08.2016 15:08 21,0 C 22,2 C 21,1 C 82 % 0 lf 1024,9 hPa 0,0 l/m 0 min 0 min 204 W/m 12,6 km/h (3 Bft) 95,74 %
22.08.2016 15:10 21,0 C 22,2 C 21,1 C 82 % 0 lf 1024,8 hPa 0,0 l/m 0 min 0 min 204 W/m 18,8 km/h (3 Bft) 97,87 %
22.08.2016 15:12 21,0 C 22,2 C 21,1 C 82 % 0 lf 1024,9 hPa 0,0 l/m 0 min 0 min 191 W/m 12,6 km/h (3 Bft) 97,87 %
22.08.2016 15:14 21,0 C 22,2 C 21,1 C 82 % 0 lf 1024,8 hPa 0,0 l/m 0 min 0 min 171 W/m 12,6 km/h (3 Bft) 97,87 %
22.08.2016 15:16 21,0 C 22,2 C 21,1 C 82 % 0 lf 1024,7 hPa 0,0 l/m 0 min 0 min 161 W/m 8,4 km/h (2 Bft) 95,65 %
22.08.2016 15:18 21,0 C 22,2 C 20,6 C 82 % 0 lf 1024,7 hPa 0,0 l/m 0 min 0 min 151 W/m 12,6 km/h (3 Bft) 95,74 %
22.08.2016 15:20 20,9 C 22,2 C 20,6 C 82 % 0 lf 1024,7 hPa 0,0 l/m 0 min 0 min 146 W/m 10,5 km/h (2 Bft) 95,74 %
22.08.2016 15:22 20,9 C 21,7 C 20,6 C 82 % 0 lf 1024,6 hPa 0,0 l/m 0 min 0 min 143 W/m 18,8 km/h (3 Bft) 97,87 %
22.08.2016 15:24 20,9 C 21,7 C 20,6 C 82 % 0 lf 1024,7 hPa 0,0 l/m 0 min 0 min 146 W/m 16,7 km/h (3 Bft) 97,87 %
22.08.2016 15:26 20,9 C 21,7 C 20,6 C 82 % 0 lf 1024,7 hPa 0,0 l/m 0 min 0 min 161 W/m 16,7 km/h (3 Bft) 97,87 %
22.08.2016 15:28 20,9 C 21,7 C 20,6 C 82 % 0 lf 1024,9 hPa 0,0 l/m 0 min 0 min 172 W/m 18,8 km/h (3 Bft) 95,65 %
22.08.2016 15:30 20,9 C 21,7 C 20,6 C 82 % 0 lf 1024,8 hPa 0,0 l/m 0 min 0 min 172 W/m 12,6 km/h (3 Bft) 93,62 %
22.08.2016 15:32 20,9 C 22,2 C 20,6 C 82 % 0 lf 1024,8 hPa 0,0 l/m 0 min 0 min 187 W/m 12,6 km/h (3 Bft) 93,62 %
22.08.2016 15:34 20,9 C 22,2 C 21,1 C 82 % 0 lf 1024,8 hPa 0,0 l/m 0 min 0 min 216 W/m 12,6 km/h (3 Bft) 95,74 %
22.08.2016 15:36 20,9 C 22,2 C 21,7 C 83 % 0 lf 1024,7 hPa 0,0 l/m 0 min 0 min 254 W/m 8,4 km/h (2 Bft) 93,62 %
22.08.2016 15:38 20,9 C 22,8 C 21,7 C 83 % 0 lf 1024,7 hPa 0,0 l/m 0 min 0 min 259 W/m 12,6 km/h (3 Bft) 93,62 %
22.08.2016 15:40 20,9 C 22,8 C 21,7 C 83 % 0 lf 1024,6 hPa 0,0 l/m 0 min 0 min 244 W/m 10,5 km/h (2 Bft) 91,30 %
22.08.2016 15:42 21,0 C 22,8 C 21,7 C 83 % 0 lf 1024,7 hPa 0,0 l/m 0 min 0 min 243 W/m 12,6 km/h (3 Bft) 97,87 %
22.08.2016 15:44 21,0 C 22,8 C 22,2 C 83 % 0 lf 1024,7 hPa 0,0 l/m 0 min 0 min 245 W/m 16,7 km/h (3 Bft) 95,74 %
22.08.2016 15:46 21,0 C 22,8 C 21,7 C 82 % 0 lf 1024,8 hPa 0,0 l/m 0 min 0 min 236 W/m 16,7 km/h (3 Bft) 95,74 %
22.08.2016 15:48 21,0 C 23,3 C 21,7 C 81 % 0 lf 1024,6 hPa 0,0 l/m 0 min 0 min 223 W/m 12,6 km/h (3 Bft) 95,74 %
22.08.2016 15:50 21,0 C 22,8 C 21,7 C 81 % 0 lf 1024,7 hPa 0,0 l/m 0 min 0 min 200 W/m 12,6 km/h (3 Bft) 95,74 %
22.08.2016 15:52 21,0 C 22,2 C 21,1 C 81 % 0 lf 1024,7 hPa 0,0 l/m 0 min 0 min 183 W/m 16,7 km/h (3 Bft) 97,83 %
22.08.2016 15:54 21,0 C 22,2 C 21,1 C 81 % 0 lf 1024,6 hPa 0,0 l/m 0 min 0 min 192 W/m 16,7 km/h (3 Bft) 97,87 %
22.08.2016 15:56 21,1 C 22,2 C 21,7 C 81 % 0 lf 1024,7 hPa 0,0 l/m 0 min 0 min 220 W/m 12,6 km/h (3 Bft) 95,74 %
22.08.2016 15:58 21,1 C 22,8 C 21,7 C 81 % 0 lf 1024,7 hPa 0,0 l/m 0 min 0 min 256 W/m 14,6 km/h (3 Bft) 97,87 %
22.08.2016 16:00 21,1 C 22,8 C 21,7 C 81 % 0 lf 1024,6 hPa 0,0 l/m 0 min 2 min 257 W/m 14,6 km/h (3 Bft) 95,74 %
22.08.2016 16:02 21,1 C 21,1 C 21,1 C 81 % 2 lf 1024,7 hPa 0,0 l/m 0 min 2 min 231 W/m 14,6 km/h (3 Bft) 95,74 %
22.08.2016 16:04 21,1 C 21,7 C 20,6 C 81 % 2 lf 1024,6 hPa 0,0 l/m 0 min 2 min 213 W/m 16,7 km/h (3 Bft) 95,65 %
22.08.2016 16:06 21,1 C 22,2 C 20,6 C 81 % 0 lf 1024,7 hPa 0,0 l/m 0 min 2 min 197 W/m 10,5 km/h (2 Bft) 97,87 %
22.08.2016 16:08 21,2 C 22,8 C 20,6 C 81 % 0 lf 1024,7 hPa 0,0 l/m 0 min 0 min 196 W/m 10,5 km/h (2 Bft) 95,74 %
22.08.2016 16:10 21,2 C 22,8 C 21,1 C 81 % 0 lf 1024,6 hPa 0,0 l/m 0 min 0 min 197 W/m 12,6 km/h (3 Bft) 97,87 %
22.08.2016 16:12 21,2 C 22,2 C 21,1 C 81 % 0 lf 1024,6 hPa 0,0 l/m 0 min 0 min 196 W/m 12,6 km/h (3 Bft) 95,74 %
22.08.2016 16:14 21,2 C 22,8 C 21,1 C 81 % 0 lf 1024,6 hPa 0,0 l/m 0 min 0 min 201 W/m 10,5 km/h (2 Bft) 97,87 %
22.08.2016 16:16 21,2 C 22,2 C 21,7 C 81 % 1 lf 1024,6 hPa 0,0 l/m 0 min 0 min 212 W/m 8,4 km/h (2 Bft) 100,00 %
22.08.2016 16:18 21,2 C 22,2 C 21,7 C 81 % 1 lf 1024,6 hPa 0,0 l/m 0 min 2 min 236 W/m 14,6 km/h (3 Bft) 100,00 %
22.08.2016 16:20 21,2 C 21,1 C 21,1 C 81 % 1 lf 1024,6 hPa 0,0 l/m 0 min 2 min 264 W/m 14,6 km/h (3 Bft) 97,87 %
22.08.2016 16:22 21,3 C 21,7 C 21,1 C 81 % 3 lf 1024,6 hPa 0,0 l/m 0 min 2 min 285 W/m 16,7 km/h (3 Bft) 95,74 %
22.08.2016 16:24 21,3 C 22,2 C 20,6 C 81 % 1 lf 1024,7 hPa 0,0 l/m 2 min 2 min 318 W/m 14,6 km/h (3 Bft) 100,00 %
22.08.2016 16:26 21,3 C 23,3 C 21,1 C 81 % 0 lf 1024,6 hPa 0,0 l/m 2 min 2 min 349 W/m 12,6 km/h (3 Bft) 95,74 %
22.08.2016 16:28 21,3 C 23,9 C 21,7 C 82 % 0 lf 1024,6 hPa 0,0 l/m 2 min 0 min 328 W/m 6,3 km/h (2 Bft) 97,83 %
22.08.2016 16:30 21,4 C 24,4 C 22,2 C 82 % 0 lf 1024,7 hPa 0,0 l/m 0 min 0 min 290 W/m 6,3 km/h (2 Bft) 93,62 %
22.08.2016 16:32 21,4 C 24,4 C 22,2 C 82 % 0 lf 1024,7 hPa 0,0 l/m 0 min 0 min 282 W/m 10,5 km/h (2 Bft) 95,74 %
22.08.2016 16:34 21,5 C 25,0 C 22,8 C 82 % 0 lf 1024,7 hPa 0,0 l/m 2 min 0 min 332 W/m 14,6 km/h (3 Bft) 95,74 %
22.08.2016 16:36 21,6 C 26,1 C 23,3 C 81 % 0 lf 1024,8 hPa 0,0 l/m 2 min 0 min 543 W/m 16,7 km/h (3 Bft) 93,62 %
22.08.2016 16:38 21,6 C 26,7 C 23,9 C 81 % 0 lf 1024,7 hPa 0,0 l/m 2 min 0 min 463 W/m 12,6 km/h (3 Bft) 95,65 %
22.08.2016 16:40 21,7 C 27,8 C 25,0 C 81 % 0 lf 1024,8 hPa 0,0 l/m 2 min 0 min 529 W/m 10,5 km/h (2 Bft) 95,74 %
22.08.2016 16:42 21,8 C 27,8 C 25,0 C 81 % 0 lf 1024,8 hPa 0,0 l/m 2 min 0 min 470 W/m 14,6 km/h (3 Bft) 95,74 %
22.08.2016 16:44 21,9 C 26,7 C 25,0 C 81 % 0 lf 1024,7 hPa 0,0 l/m 2 min 0 min 430 W/m 16,7 km/h (3 Bft) 95,74 %
22.08.2016 16:46 22,0 C 25,6 C 24,4 C 80 % 0 lf 1024,8 hPa 0,0 l/m 2 min 0 min 356 W/m 10,5 km/h (2 Bft) 93,62 %
22.08.2016 16:48 22,1 C 26,7 C 24,4 C 79 % 0 lf 1024,7 hPa 0,0 l/m 2 min 0 min 361 W/m 10,5 km/h (2 Bft) 93,62 %
22.08.2016 16:50 22,2 C 26,1 C 24,4 C 79 % 0 lf 1024,8 hPa 0,0 l/m 2 min 0 min 351 W/m 14,6 km/h (3 Bft) 95,74 %
22.08.2016 16:52 22,2 C 25,6 C 24,4 C 79 % 0 lf 1024,8 hPa 0,0 l/m 2 min 0 min 331 W/m 10,5 km/h (2 Bft) 95,65 %
22.08.2016 16:54 22,3 C 27,2 C 23,9 C 79 % 0 lf 1024,7 hPa 0,0 l/m 2 min 0 min 379 W/m 12,6 km/h (3 Bft) 95,74 %
22.08.2016 16:56 22,4 C 27,2 C 23,9 C 79 % 0 lf 1024,7 hPa 0,0 l/m 2 min 0 min 520 W/m 14,6 km/h (3 Bft) 91,49 %
22.08.2016 16:58 22,5 C 26,7 C 23,9 C 78 % 0 lf 1024,7 hPa 0,0 l/m 2 min 0 min 670 W/m 16,7 km/h (3 Bft) 95,74 %
22.08.2016 17:00 22,5 C 26,1 C 23,9 C 77 % 0 lf 1024,8 hPa 0,0 l/m 2 min 0 min 391 W/m 14,6 km/h (3 Bft) 95,74 %
22.08.2016 17:02 22,6 C 28,3 C 23,9 C 78 % 0 lf 1024,7 hPa 0,0 l/m 2 min 0 min 528 W/m 12,6 km/h (3 Bft) 91,30 %
22.08.2016 17:04 22,7 C 29,4 C 24,4 C 77 % 0 lf 1024,7 hPa 0,0 l/m 2 min 0 min 743 W/m 20,9 km/h (4 Bft) 93,62 %
22.08.2016 17:06 22,8 C 28,9 C 24,4 C 76 % 0 lf 1024,8 hPa 0,0 l/m 2 min 0 min 505 W/m 10,5 km/h (2 Bft) 93,62 %
22.08.2016 17:08 22,9 C 27,2 C 23,9 C 76 % 0 lf 1024,8 hPa 0,0 l/m 2 min 0 min 327 W/m 16,7 km/h (3 Bft) 93,62 %
22.08.2016 17:10 22,9 C 26,1 C 23,9 C 76 % 0 lf 1024,7 hPa 0,0 l/m 2 min 0 min 288 W/m 18,8 km/h (3 Bft) 97,87 %
22.08.2016 17:12 22,9 C 25,0 C 23,3 C 74 % 0 lf 1024,7 hPa 0,0 l/m 2 min 0 min 316 W/m 23,0 km/h (4 Bft) 95,74 %
22.08.2016 17:14 22,9 C 25,6 C 23,3 C 74 % 0 lf 1024,7 hPa 0,0 l/m 2 min 0 min 328 W/m 16,7 km/h (3 Bft) 95,65 %
22.08.2016 17:16 22,9 C 25,0 C 23,3 C 74 % 0 lf 1024,7 hPa 0,0 l/m 2 min 0 min 310 W/m 18,8 km/h (3 Bft) 95,74 %
22.08.2016 17:18 22,9 C 25,0 C 22,8 C 74 % 0 lf 1024,7 hPa 0,0 l/m 0 min 0 min 238 W/m 18,8 km/h (3 Bft) 93,62 %
22.08.2016 17:20 22,9 C 23,9 C 22,8 C 74 % 0 lf 1024,7 hPa 0,0 l/m 0 min 0 min 180 W/m 18,8 km/h (3 Bft) 95,74 %
22.08.2016 17:22 22,9 C 23,3 C 22,2 C 74 % 0 lf 1024,7 hPa 0,0 l/m 0 min 0 min 166 W/m 14,6 km/h (3 Bft) 100,00 %
22.08.2016 17:24 22,9 C 23,9 C 22,2 C 75 % 0 lf 1024,6 hPa 0,0 l/m 0 min 0 min 210 W/m 16,7 km/h (3 Bft) 100,00 %
22.08.2016 17:26 22,8 C 23,9 C 22,8 C 75 % 0 lf 1024,6 hPa 0,0 l/m 2 min 0 min 268 W/m 16,7 km/h (3 Bft) 100,00 %
22.08.2016 17:28 22,8 C 24,4 C 22,8 C 75 % 0 lf 1024,6 hPa 0,0 l/m 2 min 0 min 284 W/m 12,6 km/h (3 Bft) 97,87 %
22.08.2016 17:30 22,8 C 25,0 C 22,8 C 75 % 0 lf 1024,6 hPa 0,0 l/m 2 min 0 min 350 W/m 14,6 km/h (3 Bft) 98,25 %
22.08.2016 17:32 22,8 C 25,6 C 23,3 C 76 % 0 lf 1024,6 hPa 0,0 l/m 2 min 0 min 356 W/m 14,6 km/h (3 Bft) 95,74 %
22.08.2016 17:34 22,8 C 25,6 C 23,3 C 76 % 0 lf 1024,6 hPa 0,0 l/m 2 min 0 min 253 W/m 10,5 km/h (2 Bft) 100,00 %
22.08.2016 17:36 22,9 C 25,6 C 23,3 C 76 % 0 lf 1024,6 hPa 0,0 l/m 2 min 0 min 237 W/m 6,3 km/h (2 Bft) 97,96 %
22.08.2016 17:38 22,9 C 25,0 C 23,3 C 76 % 0 lf 1024,7 hPa 0,0 l/m 2 min 0 min 287 W/m 12,6 km/h (3 Bft) 95,65 %
22.08.2016 17:40 22,9 C 25,6 C 23,3 C 75 % 0 lf 1024,6 hPa 0,0 l/m 2 min 0 min 263 W/m 6,3 km/h (2 Bft) 95,74 %
22.08.2016 17:42 22,9 C 25,6 C 23,3 C 76 % 0 lf 1024,7 hPa 0,0 l/m 2 min 0 min 266 W/m 14,6 km/h (3 Bft) 97,87 %
22.08.2016 17:44 22,9 C 25,6 C 23,3 C 76 % 0 lf 1024,6 hPa 0,0 l/m 2 min 0 min 264 W/m 16,7 km/h (3 Bft) 97,87 %
22.08.2016 17:46 23,0 C 25,6 C 23,3 C 75 % 0 lf 1024,6 hPa 0,0 l/m 2 min 0 min 290 W/m 14,6 km/h (3 Bft) 97,87 %
22.08.2016 17:48 23,0 C 25,6 C 23,3 C 73 % 0 lf 1024,7 hPa 0,0 l/m 2 min 0 min 329 W/m 20,9 km/h (4 Bft) 93,62 %
22.08.2016 17:50 23,0 C 26,1 C 23,3 C 71 % 0 lf 1024,7 hPa 0,0 l/m 2 min 0 min 376 W/m 18,8 km/h (3 Bft) 100,00 %
22.08.2016 17:52 23,0 C 26,7 C 23,3 C 71 % 0 lf 1024,7 hPa 0,0 l/m 2 min 0 min 564 W/m 14,6 km/h (3 Bft) 100,00 %
22.08.2016 17:54 23,1 C 26,1 C 23,3 C 71 % 0 lf 1024,8 hPa 0,0 l/m 2 min 0 min 535 W/m 23,0 km/h (4 Bft) 100,00 %
22.08.2016 17:56 23,1 C 25,6 C 23,3 C 70 % 0 lf 1024,7 hPa 0,0 l/m 2 min 0 min 497 W/m 23,0 km/h (4 Bft) 100,00 %
22.08.2016 17:58 23,2 C 25,6 C 22,8 C 70 % 0 lf 1024,7 hPa 0,0 l/m 2 min 0 min 446 W/m 16,7 km/h (3 Bft) 97,87 %
22.08.2016 18:00 23,2 C 25,6 C 22,8 C 70 % 0 lf 1024,8 hPa 0,0 l/m 2 min 0 min 439 W/m 18,8 km/h (3 Bft) 97,87 %
22.08.2016 18:02 23,2 C 25,0 C 22,8 C 70 % 0 lf 1024,8 hPa 0,0 l/m 2 min 0 min 426 W/m 23,0 km/h (4 Bft) 97,83 %
22.08.2016 18:04 23,3 C 25,0 C 22,2 C 70 % 0 lf 1024,8 hPa 0,0 l/m 2 min 0 min 410 W/m 12,6 km/h (3 Bft) 95,74 %
22.08.2016 18:06 23,3 C 24,4 C 22,2 C 71 % 0 lf 1024,8 hPa 0,0 l/m 2 min 0 min 403 W/m 16,7 km/h (3 Bft) 93,62 %
22.08.2016 18:08 23,3 C 24,4 C 22,2 C 71 % 0 lf 1024,8 hPa 0,0 l/m 2 min 0 min 300 W/m 16,7 km/h (3 Bft) 93,62 %
22.08.2016 18:10 23,3 C 24,4 C 21,7 C 70 % 0 lf 1024,7 hPa 0,0 l/m 2 min 0 min 275 W/m 20,9 km/h (4 Bft) 95,74 %
22.08.2016 18:12 23,3 C 24,4 C 21,7 C 71 % 0 lf 1024,7 hPa 0,0 l/m 2 min 0 min 393 W/m 14,6 km/h (3 Bft) 95,74 %
22.08.2016 18:14 23,3 C 24,4 C 21,7 C 71 % 0 lf 1024,8 hPa 0,0 l/m 2 min 0 min 366 W/m 12,6 km/h (3 Bft) 93,48 %
22.08.2016 18:16 23,3 C 24,4 C 21,7 C 71 % 0 lf 1024,7 hPa 0,0 l/m 0 min 0 min 168 W/m 14,6 km/h (3 Bft) 95,74 %
22.08.2016 18:18 23,3 C 24,4 C 21,7 C 71 % 0 lf 1024,8 hPa 0,0 l/m 2 min 0 min 256 W/m 10,5 km/h (2 Bft) 95,74 %
22.08.2016 18:20 23,3 C 23,9 C 21,7 C 70 % 0 lf 1024,8 hPa 0,0 l/m 2 min 0 min 298 W/m 12,6 km/h (3 Bft) 91,49 %
22.08.2016 18:22 23,3 C 23,9 C 21,7 C 70 % 0 lf 1024,8 hPa 0,0 l/m 2 min 0 min 194 W/m 16,7 km/h (3 Bft) 95,74 %
22.08.2016 18:24 23,3 C 23,9 C 21,7 C 70 % 0 lf 1024,8 hPa 0,0 l/m 2 min 0 min 225 W/m 25,1 km/h (4 Bft) 95,65 %
22.08.2016 18:26 23,2 C 23,9 C 22,2 C 70 % 0 lf 1024,9 hPa 0,0 l/m 2 min 0 min 297 W/m 16,7 km/h (3 Bft) 95,74 %
22.08.2016 18:28 23,2 C 24,4 C 22,2 C 70 % 0 lf 1024,9 hPa 0,0 l/m 2 min 0 min 403 W/m 16,7 km/h (3 Bft) 93,62 %
22.08.2016 18:30 23,3 C 24,4 C 22,2 C 71 % 0 lf 1024,9 hPa 0,0 l/m 2 min 0 min 371 W/m 10,5 km/h (2 Bft) 93,62 %
22.08.2016 18:32 23,3 C 24,4 C 22,2 C 71 % 0 lf 1024,9 hPa 0,0 l/m 2 min 0 min 321 W/m 18,8 km/h (3 Bft) 93,62 %
22.08.2016 18:34 23,3 C 24,4 C 21,7 C 70 % 0 lf 1024,9 hPa 0,0 l/m 2 min 0 min 194 W/m 14,6 km/h (3 Bft) 95,74 %
22.08.2016 18:36 23,2 C 23,9 C 21,1 C 70 % 0 lf 1024,9 hPa 0,0 l/m 0 min 0 min 83 W/m 20,9 km/h (4 Bft) 93,48 %
22.08.2016 18:38 23,2 C 23,3 C 21,1 C 69 % 0 lf 1024,8 hPa 0,0 l/m 0 min 0 min 79 W/m 18,8 km/h (3 Bft) 89,36 %
22.08.2016 18:40 23,2 C 23,3 C 20,6 C 68 % 0 lf 1024,8 hPa 0,0 l/m 0 min 0 min 107 W/m 16,7 km/h (3 Bft) 95,74 %
22.08.2016 18:42 23,1 C 23,3 C 20,6 C 69 % 0 lf 1024,8 hPa 0,0 l/m 0 min 0 min 109 W/m 16,7 km/h (3 Bft) 93,62 %
22.08.2016 18:44 23,1 C 23,3 C 20,6 C 69 % 0 lf 1024,9 hPa 0,0 l/m 0 min 0 min 111 W/m 12,6 km/h (3 Bft) 95,74 %
22.08.2016 18:46 23,0 C 22,8 C 20,6 C 69 % 0 lf 1024,8 hPa 0,0 l/m 0 min 0 min 119 W/m 14,6 km/h (3 Bft) 93,62 %
22.08.2016 18:48 22,9 C 22,8 C 20,6 C 69 % 0 lf 1024,8 hPa 0,0 l/m 0 min 0 min 129 W/m 14,6 km/h (3 Bft) 91,30 %
22.08.2016 18:50 22,9 C 22,8 C 21,1 C 69 % 0 lf 1024,8 hPa 0,0 l/m 0 min 0 min 135 W/m 14,6 km/h (3 Bft) 93,62 %
22.08.2016 18:52 22,8 C 23,3 C 21,1 C 69 % 0 lf 1024,8 hPa 0,0 l/m 0 min 0 min 132 W/m 8,4 km/h (2 Bft) 95,74 %
22.08.2016 18:54 22,8 C 22,8 C 21,1 C 69 % 0 lf 1024,8 hPa 0,0 l/m 0 min 0 min 124 W/m 12,6 km/h (3 Bft) 91,49 %
22.08.2016 18:56 22,8 C 23,3 C 21,1 C 69 % 0 lf 1024,8 hPa 0,0 l/m 0 min 0 min 112 W/m 8,4 km/h (2 Bft) 97,87 %
22.08.2016 18:58 22,8 C 22,8 C 21,1 C 70 % 0 lf 1024,7 hPa 0,0 l/m 0 min 0 min 104 W/m 8,4 km/h (2 Bft) 97,87 %
22.08.2016 19:00 22,7 C 22,8 C 20,6 C 70 % 0 lf 1024,7 hPa 0,0 l/m 0 min 0 min 103 W/m 8,4 km/h (2 Bft) 95,83 %
22.08.2016 19:02 22,7 C 22,8 C 20,6 C 70 % 0 lf 1024,7 hPa 0,0 l/m 0 min 0 min 108 W/m 8,4 km/h (2 Bft) 95,74 %
22.08.2016 19:04 22,7 C 22,8 C 20,6 C 70 % 0 lf 1024,7 hPa 0,0 l/m 2 min 0 min 119 W/m 8,4 km/h (2 Bft) 95,74 %
22.08.2016 19:06 22,7 C 23,3 C 20,6 C 70 % 0 lf 1024,6 hPa 0,0 l/m 2 min 0 min 220 W/m 6,3 km/h (2 Bft) 95,74 %
22.08.2016 19:08 22,7 C 23,3 C 20,6 C 71 % 0 lf 1024,7 hPa 0,0 l/m 2 min 0 min 242 W/m 8,4 km/h (2 Bft) 97,87 %
22.08.2016 19:10 22,7 C 23,3 C 20,6 C 71 % 0 lf 1024,7 hPa 0,0 l/m 2 min 0 min 228 W/m 8,4 km/h (2 Bft) 93,48 %
22.08.2016 19:12 22,6 C 23,3 C 20,6 C 71 % 0 lf 1024,6 hPa 0,0 l/m 2 min 0 min 208 W/m 8,4 km/h (2 Bft) 93,62 %
22.08.2016 19:14 22,6 C 23,3 C 20,6 C 71 % 0 lf 1024,6 hPa 0,0 l/m 2 min 0 min 186 W/m 6,3 km/h (2 Bft) 97,87 %
22.08.2016 19:16 22,6 C 23,3 C 20,6 C 71 % 0 lf 1024,7 hPa 0,0 l/m 2 min 0 min 159 W/m 6,3 km/h (2 Bft) 97,87 %
22.08.2016 19:18 22,6 C 22,8 C 20,6 C 71 % 0 lf 1024,7 hPa 0,0 l/m 0 min 0 min 95 W/m 6,3 km/h (2 Bft) 100,00 %
22.08.2016 19:20 22,6 C 22,8 C 20,0 C 72 % 0 lf 1024,7 hPa 0,0 l/m 0 min 0 min 78 W/m 6,3 km/h (2 Bft) 97,87 %
22.08.2016 19:22 22,6 C 22,8 C 20,0 C 72 % 0 lf 1024,7 hPa 0,0 l/m 0 min 0 min 54 W/m 6,3 km/h (2 Bft) 100,00 %
22.08.2016 19:24 22,6 C 22,8 C 19,4 C 72 % 0 lf 1024,8 hPa 0,0 l/m 0 min 0 min 49 W/m 6,3 km/h (2 Bft) 97,87 %
22.08.2016 19:26 22,6 C 22,8 C 19,4 C 72 % 0 lf 1024,7 hPa 0,0 l/m 0 min 0 min 50 W/m 8,4 km/h (2 Bft) 100,00 %
22.08.2016 19:28 22,5 C 22,2 C 19,4 C 72 % 0 lf 1024,7 hPa 0,0 l/m 0 min 0 min 45 W/m 4,2 km/h (1 Bft) 95,74 %
22.08.2016 19:30 22,5 C 22,2 C 19,4 C 72 % 0 lf 1024,8 hPa 0,0 l/m 0 min 0 min 48 W/m 6,3 km/h (2 Bft) 97,87 %
22.08.2016 19:32 22,5 C 22,2 C 19,4 C 72 % 0 lf 1024,8 hPa 0,0 l/m 0 min 0 min 45 W/m 4,2 km/h (1 Bft) 95,74 %
22.08.2016 19:34 22,4 C 22,2 C 18,9 C 72 % 0 lf 1024,7 hPa 0,0 l/m 0 min 0 min 40 W/m 4,2 km/h (1 Bft) 100,00 %
22.08.2016 19:36 22,4 C 22,2 C 18,9 C 73 % 0 lf 1024,7 hPa 0,0 l/m 0 min 0 min 40 W/m 4,2 km/h (1 Bft) 97,87 %
22.08.2016 19:38 22,4 C 22,2 C 18,9 C 73 % 0 lf 1024,7 hPa 0,0 l/m 0 min 0 min 39 W/m 6,3 km/h (2 Bft) 100,00 %
22.08.2016 19:40 22,4 C 22,2 C 18,9 C 73 % 0 lf 1024,7 hPa 0,0 l/m 0 min 0 min 39 W/m 6,3 km/h (2 Bft) 97,87 %
22.08.2016 19:42 22,4 C 21,7 C 18,9 C 73 % 0 lf 1024,7 hPa 0,0 l/m 0 min 0 min 39 W/m 4,2 km/h (1 Bft) 95,74 %
22.08.2016 19:44 22,3 C 21,7 C 18,9 C 73 % 0 lf 1024,7 hPa 0,0 l/m 0 min 0 min 39 W/m 6,3 km/h (2 Bft) 95,74 %
22.08.2016 19:46 22,3 C 21,7 C 18,9 C 73 % 0 lf 1024,7 hPa 0,0 l/m 0 min 0 min 40 W/m 4,2 km/h (1 Bft) 97,83 %
22.08.2016 19:48 22,3 C 21,7 C 18,3 C 73 % 0 lf 1024,7 hPa 0,0 l/m 0 min 0 min 43 W/m 6,3 km/h (2 Bft) 97,87 %
22.08.2016 19:50 22,3 C 21,7 C 18,3 C 73 % 0 lf 1024,7 hPa 0,0 l/m 0 min 0 min 38 W/m 6,3 km/h (2 Bft) 93,62 %
22.08.2016 19:52 22,2 C 21,7 C 18,3 C 73 % 0 lf 1024,7 hPa 0,0 l/m 0 min 0 min 37 W/m 6,3 km/h (2 Bft) 97,87 %
22.08.2016 19:54 22,2 C 21,7 C 18,3 C 73 % 0 lf 1024,7 hPa 0,0 l/m 0 min 0 min 36 W/m 6,3 km/h (2 Bft) 95,74 %
22.08.2016 19:56 22,2 C 21,7 C 18,3 C 73 % 0 lf 1024,7 hPa 0,0 l/m 0 min 0 min 35 W/m 6,3 km/h (2 Bft) 97,87 %
22.08.2016 19:58 22,1 C 21,7 C 18,3 C 73 % 0 lf 1024,7 hPa 0,0 l/m 0 min 0 min 34 W/m 6,3 km/h (2 Bft) 97,83 %
22.08.2016 20:00 22,1 C 21,1 C 18,3 C 73 % 0 lf 1024,7 hPa 0,0 l/m 0 min 0 min 32 W/m 6,3 km/h (2 Bft) 97,87 %
22.08.2016 20:02 22,1 C 21,1 C 18,3 C 73 % 0 lf 1024,8 hPa 0,0 l/m 0 min 0 min 32 W/m 4,2 km/h (1 Bft) 93,62 %
22.08.2016 20:04 22,0 C 21,1 C 17,8 C 73 % 0 lf 1024,8 hPa 0,0 l/m 0 min 0 min 32 W/m 6,3 km/h (2 Bft) 97,87 %
22.08.2016 20:06 22,0 C 21,1 C 17,8 C 73 % 0 lf 1024,7 hPa 0,0 l/m 0 min 0 min 30 W/m 6,3 km/h (2 Bft) 95,74 %
22.08.2016 20:08 21,9 C 21,1 C 17,8 C 74 % 0 lf 1024,8 hPa 0,0 l/m 0 min 0 min 27 W/m 8,4 km/h (2 Bft) 95,74 %
22.08.2016 20:10 21,9 C 21,1 C 17,8 C 74 % 0 lf 1024,8 hPa 0,0 l/m 0 min 0 min 26 W/m 6,3 km/h (2 Bft) 97,83 %
22.08.2016 20:12 21,9 C 21,1 C 17,8 C 74 % 0 lf 1024,8 hPa 0,0 l/m 0 min 0 min 26 W/m 6,3 km/h (2 Bft) 97,87 %
22.08.2016 20:14 21,8 C 21,1 C 17,8 C 74 % 0 lf 1024,8 hPa 0,0 l/m 0 min 0 min 26 W/m 4,2 km/h (1 Bft) 93,62 %
22.08.2016 20:16 21,8 C 21,1 C 17,2 C 74 % 0 lf 1024,8 hPa 0,0 l/m 2 min 0 min 25 W/m 4,2 km/h (1 Bft) 97,87 %
22.08.2016 20:18 21,8 C 20,6 C 17,2 C 74 % 0 lf 1024,8 hPa 0,0 l/m 2 min 0 min 24 W/m 4,2 km/h (1 Bft) 97,87 %
22.08.2016 20:20 21,8 C 20,6 C 17,2 C 75 % 0 lf 1024,8 hPa 0,0 l/m 2 min 0 min 21 W/m 4,2 km/h (1 Bft) 95,65 %
22.08.2016 20:22 21,7 C 20,6 C 17,2 C 75 % 0 lf 1024,8 hPa 0,0 l/m 2 min 0 min 21 W/m 4,2 km/h (1 Bft) 95,74 %
22.08.2016 20:24 21,7 C 20,0 C 16,7 C 75 % 0 lf 1024,8 hPa 0,0 l/m 2 min 0 min 19 W/m 4,2 km/h (1 Bft) 97,87 %
22.08.2016 20:26 21,7 C 20,0 C 16,7 C 75 % 0 lf 1024,8 hPa 0,0 l/m 2 min 0 min 19 W/m 6,3 km/h (2 Bft) 95,74 %
22.08.2016 20:28 21,6 C 20,0 C 16,7 C 75 % 0 lf 1024,8 hPa 0,0 l/m 0 min 0 min 18 W/m 4,2 km/h (1 Bft) 97,87 %
22.08.2016 20:30 21,6 C 20,0 C 16,7 C 75 % 0 lf 1024,8 hPa 0,0 l/m 0 min 0 min 17 W/m 4,2 km/h (1 Bft) 97,87 %
22.08.2016 20:32 21,5 C 20,0 C 16,7 C 76 % 0 lf 1024,8 hPa 0,0 l/m 0 min 0 min 16 W/m 0,0 km/h (0 Bft) 95,65 %
22.08.2016 20:34 21,4 C 20,0 C 16,7 C 76 % 0 lf 1024,8 hPa 0,0 l/m 0 min 0 min 14 W/m 0,0 km/h (0 Bft) 95,74 %
22.08.2016 20:36 21,4 C 19,4 C 16,7 C 76 % 0 lf 1024,8 hPa 0,0 l/m 0 min 0 min 14 W/m 0,0 km/h (0 Bft) 95,74 %
22.08.2016 20:38 21,3 C 19,4 C 16,1 C 76 % 0 lf 1024,8 hPa 0,0 l/m 0 min 0 min 12 W/m 0,0 km/h (0 Bft) 97,87 %
22.08.2016 20:40 21,3 C 19,4 C 16,1 C 76 % 0 lf 1024,8 hPa 0,0 l/m 0 min 0 min 11 W/m 0,0 km/h (0 Bft) 97,87 %
22.08.2016 20:42 21,2 C 18,9 C 16,1 C 76 % 0 lf 1024,8 hPa 0,0 l/m 0 min 0 min 11 W/m 0,0 km/h (0 Bft) 100,00 %
22.08.2016 20:44 21,2 C 18,9 C 16,1 C 76 % 0 lf 1024,8 hPa 0,0 l/m 0 min 0 min 10 W/m 0,0 km/h (0 Bft) 97,83 %
22.08.2016 20:46 21,1 C 18,9 C 16,1 C 77 % 1 lf 1024,8 hPa 0,0 l/m 0 min 0 min 9 W/m 0,0 km/h (0 Bft) 100,00 %
22.08.2016 20:48 21,0 C 18,9 C 16,1 C 77 % 1 lf 1024,9 hPa 0,0 l/m 0 min 0 min 9 W/m 0,0 km/h (0 Bft) 93,62 %
22.08.2016 20:50 20,9 C 18,9 C 15,6 C 77 % 1 lf 1024,9 hPa 0,0 l/m 0 min 0 min 7 W/m 0,0 km/h (0 Bft) 95,74 %
22.08.2016 20:52 20,9 C 18,9 C 15,6 C 77 % 1 lf 1024,8 hPa 0,0 l/m 0 min 0 min 7 W/m 0,0 km/h (0 Bft) 95,74 %
22.08.2016 20:54 20,8 C 18,3 C 15,6 C 77 % 1 lf 1024,9 hPa 0,0 l/m 0 min 0 min 7 W/m 6,3 km/h (2 Bft) 91,49 %
22.08.2016 20:56 20,8 C 18,3 C 15,6 C 78 % 1 lf 1024,9 hPa 0,0 l/m 0 min 0 min 5 W/m 6,3 km/h (2 Bft) 97,83 %
22.08.2016 20:58 20,7 C 18,3 C 15,6 C 78 % 1 lf 1024,8 hPa 0,0 l/m 0 min 0 min 5 W/m 6,3 km/h (2 Bft) 95,74 %
22.08.2016 21:00 20,6 C 18,3 C 15,6 C 78 % 1 lf 1024,8 hPa 0,0 l/m 0 min 0 min 5 W/m 6,3 km/h (2 Bft) 93,62 %
22.08.2016 21:02 20,6 C 18,3 C 15,6 C 78 % 1 lf 1024,9 hPa 0,0 l/m 0 min 0 min 5 W/m 4,2 km/h (1 Bft) 93,62 %
22.08.2016 21:04 20,4 C 18,3 C 15,6 C 79 % 1 lf 1024,9 hPa 0,0 l/m 0 min 0 min 5 W/m 8,4 km/h (2 Bft) 91,49 %
22.08.2016 21:06 20,4 C 18,3 C 15,0 C 79 % 1 lf 1025,0 hPa 0,0 l/m 0 min 0 min 5 W/m 4,2 km/h (1 Bft) 93,62 %
22.08.2016 21:08 20,3 C 17,8 C 15,0 C 79 % 1 lf 1025,0 hPa 0,0 l/m 0 min 0 min 5 W/m 4,2 km/h (1 Bft) 93,48 %
22.08.2016 21:10 20,2 C 17,8 C 15,0 C 80 % 1 lf 1025,1 hPa 0,0 l/m 0 min 0 min 5 W/m 4,2 km/h (1 Bft) 95,74 %
22.08.2016 21:12 20,2 C 17,8 C 15,0 C 80 % 1 lf 1024,9 hPa 0,0 l/m 0 min 0 min 5 W/m 2,1 km/h (1 Bft) 91,49 %
22.08.2016 21:14 20,1 C 17,8 C 15,0 C 80 % 1 lf 1024,9 hPa 0,0 l/m 0 min 0 min 5 W/m 2,1 km/h (1 Bft) 93,62 %
22.08.2016 21:16 20,0 C 17,8 C 15,0 C 80 % 1 lf 1025,0 hPa 0,0 l/m 0 min 0 min 5 W/m 2,1 km/h (1 Bft) 95,74 %
22.08.2016 21:18 19,9 C 17,8 C 15,0 C 80 % 1 lf 1025,0 hPa 0,0 l/m 0 min 0 min 5 W/m 2,1 km/h (1 Bft) 93,62 %
22.08.2016 21:20 19,8 C 17,8 C 15,0 C 81 % 1 lf 1025,0 hPa 0,0 l/m 0 min 0 min 5 W/m 4,2 km/h (1 Bft) 95,65 %
22.08.2016 21:22 19,8 C 17,8 C 15,0 C 81 % 1 lf 1024,9 hPa 0,0 l/m 0 min 0 min 5 W/m 4,2 km/h (1 Bft) 95,74 %
22.08.2016 21:24 19,7 C 17,8 C 15,0 C 81 % 1 lf 1025,0 hPa 0,0 l/m 0 min 0 min 5 W/m 4,2 km/h (1 Bft) 89,36 %
22.08.2016 21:26 19,6 C 17,2 C 15,0 C 81 % 1 lf 1025,0 hPa 0,0 l/m 0 min 0 min 5 W/m 4,2 km/h (1 Bft) 97,87 %
22.08.2016 21:28 19,6 C 17,2 C 15,0 C 81 % 1 lf 1024,9 hPa 0,0 l/m 0 min 0 min 5 W/m 4,2 km/h (1 Bft) 93,62 %
22.08.2016 21:30 19,4 C 17,2 C 15,0 C 82 % 1 lf 1024,9 hPa 0,0 l/m 0 min 0 min 5 W/m 4,2 km/h (1 Bft) 93,62 %
22.08.2016 21:32 19,4 C 17,8 C 14,4 C 82 % 1 lf 1024,9 hPa 0,0 l/m 0 min 0 min 5 W/m 4,2 km/h (1 Bft) 91,30 %
22.08.2016 21:34 19,3 C 17,2 C 14,4 C 82 % 1 lf 1025,0 hPa 0,0 l/m 0 min 0 min 5 W/m 4,2 km/h (1 Bft) 95,74 %
22.08.2016 21:36 19,3 C 17,2 C 14,4 C 82 % 1 lf 1025,0 hPa 0,0 l/m 0 min 0 min 5 W/m 4,2 km/h (1 Bft) 95,74 %
22.08.2016 21:38 19,2 C 17,2 C 14,4 C 83 % 1 lf 1025,0 hPa 0,0 l/m 0 min 0 min 5 W/m 4,2 km/h (1 Bft) 97,87 %
22.08.2016 21:40 19,1 C 17,2 C 14,4 C 83 % 2 lf 1025,0 hPa 0,0 l/m 0 min 0 min 5 W/m 6,3 km/h (2 Bft) 97,87 %
22.08.2016 21:42 19,1 C 17,2 C 14,4 C 83 % 2 lf 1025,1 hPa 0,0 l/m 0 min 0 min 5 W/m 6,3 km/h (2 Bft) 95,65 %
22.08.2016 21:44 19,0 C 17,2 C 14,4 C 83 % 2 lf 1025,1 hPa 0,0 l/m 0 min 0 min 5 W/m 6,3 km/h (2 Bft) 93,62 %
22.08.2016 21:46 18,9 C 17,2 C 14,4 C 83 % 2 lf 1025,0 hPa 0,0 l/m 0 min 0 min 5 W/m 6,3 km/h (2 Bft) 93,62 %
22.08.2016 21:48 18,9 C 17,2 C 14,4 C 83 % 2 lf 1025,1 hPa 0,0 l/m 0 min 0 min 5 W/m 4,2 km/h (1 Bft) 97,87 %
22.08.2016 21:50 18,8 C 16,7 C 14,4 C 84 % 2 lf 1025,1 hPa 0,0 l/m 0 min 0 min 5 W/m 4,2 km/h (1 Bft) 97,87 %
22.08.2016 21:52 18,7 C 16,7 C 14,4 C 84 % 2 lf 1025,1 hPa 0,0 l/m 0 min 0 min 5 W/m 4,2 km/h (1 Bft) 97,87 %
22.08.2016 21:54 18,7 C 16,7 C 14,4 C 84 % 2 lf 1025,0 hPa 0,0 l/m 0 min 0 min 5 W/m 6,3 km/h (2 Bft) 89,13 %
22.08.2016 21:56 18,7 C 16,7 C 14,4 C 84 % 2 lf 1025,1 hPa 0,0 l/m 0 min 0 min 5 W/m 6,3 km/h (2 Bft) 95,74 %
22.08.2016 21:58 18,6 C 16,7 C 14,4 C 84 % 2 lf 1025,1 hPa 0,0 l/m 0 min 0 min 5 W/m 6,3 km/h (2 Bft) 97,87 %
22.08.2016 22:00 18,6 C 16,7 C 13,9 C 84 % 2 lf 1025,1 hPa 0,0 l/m 0 min 0 min 5 W/m 6,3 km/h (2 Bft) 100,00 %
22.08.2016 22:02 18,5 C 16,7 C 13,9 C 84 % 2 lf 1025,1 hPa 0,0 l/m 0 min 0 min 5 W/m 6,3 km/h (2 Bft) 100,00 %
22.08.2016 22:04 18,4 C 16,7 C 13,9 C 85 % 2 lf 1025,1 hPa 0,0 l/m 0 min 0 min 5 W/m 4,2 km/h (1 Bft) 97,87 %
22.08.2016 22:06 18,4 C 16,7 C 13,9 C 85 % 2 lf 1025,1 hPa 0,0 l/m 0 min 0 min 5 W/m 6,3 km/h (2 Bft) 100,00 %
22.08.2016 22:08 18,3 C 16,7 C 13,9 C 85 % 2 lf 1025,1 hPa 0,0 l/m 0 min 0 min 5 W/m 4,2 km/h (1 Bft) 97,87 %
22.08.2016 22:10 18,2 C 16,7 C 13,9 C 85 % 2 lf 1025,1 hPa 0,0 l/m 0 min 0 min 5 W/m 4,2 km/h (1 Bft) 100,00 %
22.08.2016 22:12 18,2 C 16,7 C 13,9 C 85 % 3 lf 1025,2 hPa 0,0 l/m 0 min 0 min 5 W/m 2,1 km/h (1 Bft) 100,00 %
22.08.2016 22:14 18,1 C 16,1 C 13,9 C 85 % 3 lf 1025,1 hPa 0,0 l/m 0 min 0 min 5 W/m 2,1 km/h (1 Bft) 97,87 %
22.08.2016 22:16 18,1 C 16,1 C 13,9 C 85 % 3 lf 1025,2 hPa 0,0 l/m 0 min 0 min 5 W/m 2,1 km/h (1 Bft) 100,00 %
22.08.2016 22:18 18,0 C 16,1 C 13,9 C 85 % 3 lf 1025,2 hPa 0,0 l/m 0 min 0 min 5 W/m 4,2 km/h (1 Bft) 97,83 %
22.08.2016 22:20 17,9 C 16,1 C 13,9 C 85 % 3 lf 1025,2 hPa 0,0 l/m 0 min 0 min 5 W/m 4,2 km/h (1 Bft) 97,87 %
22.08.2016 22:22 17,8 C 16,1 C 13,9 C 85 % 3 lf 1025,2 hPa 0,0 l/m 0 min 0 min 5 W/m 4,2 km/h (1 Bft) 100,00 %
22.08.2016 22:24 17,8 C 16,1 C 13,9 C 85 % 3 lf 1025,2 hPa 0,0 l/m 0 min 0 min 5 W/m 4,2 km/h (1 Bft) 100,00 %
22.08.2016 22:26 17,8 C 16,1 C 13,9 C 86 % 3 lf 1025,2 hPa 0,0 l/m 0 min 0 min 5 W/m 6,3 km/h (2 Bft) 100,00 %
22.08.2016 22:28 17,7 C 16,1 C 13,9 C 86 % 3 lf 1025,2 hPa 0,0 l/m 0 min 0 min 5 W/m 8,4 km/h (2 Bft) 100,00 %
22.08.2016 22:30 17,7 C 16,1 C 13,9 C 86 % 3 lf 1025,3 hPa 0,0 l/m 0 min 0 min 5 W/m 8,4 km/h (2 Bft) 95,65 %
22.08.2016 22:32 17,7 C 16,1 C 13,9 C 87 % 3 lf 1025,2 hPa 0,0 l/m 0 min 0 min 5 W/m 6,3 km/h (2 Bft) 97,87 %
22.08.2016 22:34 17,6 C 16,1 C 13,9 C 87 % 3 lf 1025,2 hPa 0,0 l/m 0 min 0 min 5 W/m 6,3 km/h (2 Bft) 100,00 %
22.08.2016 22:36 17,5 C 16,1 C 13,9 C 87 % 3 lf 1025,2 hPa 0,0 l/m 0 min 0 min 5 W/m 8,4 km/h (2 Bft) 97,87 %
22.08.2016 22:38 17,5 C 16,1 C 13,9 C 87 % 3 lf 1025,3 hPa 0,0 l/m 0 min 0 min 5 W/m 6,3 km/h (2 Bft) 100,00 %
22.08.2016 22:40 17,4 C 16,1 C 13,9 C 87 % 3 lf 1025,3 hPa 0,0 l/m 0 min 0 min 5 W/m 8,4 km/h (2 Bft) 100,00 %
22.08.2016 22:42 17,4 C 16,1 C 13,9 C 88 % 4 lf 1025,4 hPa 0,0 l/m 0 min 0 min 5 W/m 10,5 km/h (2 Bft) 97,83 %
22.08.2016 22:44 17,4 C 16,1 C 13,9 C 88 % 4 lf 1025,4 hPa 0,0 l/m 0 min 0 min 5 W/m 6,3 km/h (2 Bft) 97,87 %
22.08.2016 22:46 17,3 C 16,1 C 13,9 C 88 % 4 lf 1025,3 hPa 0,0 l/m 0 min 0 min 5 W/m 6,3 km/h (2 Bft) 93,62 %
22.08.2016 22:48 17,3 C 16,1 C 13,9 C 88 % 4 lf 1025,3 hPa 0,0 l/m 0 min 0 min 5 W/m 6,3 km/h (2 Bft) 97,87 %
22.08.2016 22:50 17,3 C 16,1 C 13,9 C 89 % 4 lf 1025,3 hPa 0,0 l/m 0 min 0 min 5 W/m 6,3 km/h (2 Bft) 95,74 %
22.08.2016 22:52 17,2 C 16,1 C 13,9 C 89 % 4 lf 1025,3 hPa 0,0 l/m 0 min 0 min 5 W/m 6,3 km/h (2 Bft) 97,87 %
22.08.2016 22:54 17,2 C 16,1 C 13,9 C 89 % 4 lf 1025,3 hPa 0,0 l/m 0 min 0 min 5 W/m 4,2 km/h (1 Bft) 97,83 %
22.08.2016 22:56 17,2 C 15,6 C 13,3 C 89 % 4 lf 1025,3 hPa 0,0 l/m 0 min 0 min 5 W/m 4,2 km/h (1 Bft) 95,74 %
22.08.2016 22:58 17,1 C 15,6 C 13,3 C 89 % 4 lf 1025,3 hPa 0,0 l/m 0 min 0 min 5 W/m 6,3 km/h (2 Bft) 95,74 %
22.08.2016 23:00 17,1 C 15,6 C 13,3 C 89 % 4 lf 1025,3 hPa 0,0 l/m 0 min 0 min 5 W/m 4,2 km/h (1 Bft) 97,87 %
22.08.2016 23:02 17,0 C 15,6 C 13,3 C 89 % 5 lf 1025,3 hPa 0,0 l/m 0 min 0 min 5 W/m 4,2 km/h (1 Bft) 97,87 %
22.08.2016 23:04 17,0 C 15,6 C 13,3 C 89 % 5 lf 1025,3 hPa 0,0 l/m 0 min 0 min 5 W/m 6,3 km/h (2 Bft) 95,65 %
22.08.2016 23:06 16,9 C 15,6 C 13,3 C 89 % 5 lf 1025,3 hPa 0,0 l/m 0 min 0 min 5 W/m 6,3 km/h (2 Bft) 95,74 %
22.08.2016 23:08 16,9 C 15,6 C 13,3 C 89 % 6 lf 1025,3 hPa 0,0 l/m 0 min 0 min 5 W/m 10,5 km/h (2 Bft) 97,87 %
22.08.2016 23:10 16,9 C 15,6 C 13,3 C 89 % 6 lf 1025,2 hPa 0,0 l/m 0 min 0 min 5 W/m 10,5 km/h (2 Bft) 97,87 %
22.08.2016 23:12 16,9 C 15,6 C 13,3 C 90 % 6 lf 1025,3 hPa 0,0 l/m 0 min 0 min 5 W/m 6,3 km/h (2 Bft) 95,74 %
22.08.2016 23:14 16,8 C 15,6 C 13,3 C 90 % 7 lf 1025,3 hPa 0,0 l/m 0 min 0 min 5 W/m 6,3 km/h (2 Bft) 97,87 %
22.08.2016 23:16 16,8 C 15,6 C 13,3 C 90 % 7 lf 1025,3 hPa 0,0 l/m 0 min 0 min 5 W/m 4,2 km/h (1 Bft) 97,83 %
22.08.2016 23:18 16,8 C 15,6 C 13,3 C 90 % 7 lf 1025,3 hPa 0,0 l/m 0 min 0 min 5 W/m 4,2 km/h (1 Bft) 97,87 %
22.08.2016 23:20 16,7 C 15,6 C 13,3 C 90 % 7 lf 1025,3 hPa 0,0 l/m 0 min 0 min 5 W/m 6,3 km/h (2 Bft) 97,87 %
22.08.2016 23:22 16,7 C 15,6 C 13,3 C 90 % 8 lf 1025,2 hPa 0,0 l/m 0 min 0 min 5 W/m 8,4 km/h (2 Bft) 95,74 %
22.08.2016 23:24 16,7 C 15,6 C 13,3 C 90 % 8 lf 1025,3 hPa 0,0 l/m 0 min 0 min 5 W/m 6,3 km/h (2 Bft) 97,87 %
22.08.2016 23:26 16,6 C 15,6 C 13,3 C 90 % 8 lf 1025,2 hPa 0,0 l/m 0 min 0 min 5 W/m 6,3 km/h (2 Bft) 97,87 %
22.08.2016 23:28 16,6 C 15,6 C 13,3 C 90 % 8 lf 1025,2 hPa 0,0 l/m 0 min 0 min 5 W/m 6,3 km/h (2 Bft) 97,83 %
22.08.2016 23:30 16,6 C 15,6 C 13,3 C 91 % 9 lf 1025,2 hPa 0,0 l/m 0 min 0 min 5 W/m 8,4 km/h (2 Bft) 95,74 %
22.08.2016 23:32 16,5 C 15,6 C 13,3 C 91 % 9 lf 1025,3 hPa 0,0 l/m 0 min 0 min 5 W/m 8,4 km/h (2 Bft) 97,87 %
22.08.2016 23:34 16,5 C 15,6 C 13,3 C 91 % 9 lf 1025,2 hPa 0,0 l/m 0 min 0 min 5 W/m 8,4 km/h (2 Bft) 97,87 %
22.08.2016 23:36 16,4 C 15,6 C 13,3 C 91 % 10 lf 1025,3 hPa 0,0 l/m 0 min 0 min 5 W/m 6,3 km/h (2 Bft) 97,87 %
22.08.2016 23:38 16,4 C 15,6 C 13,3 C 91 % 10 lf 1025,2 hPa 0,0 l/m 0 min 0 min 5 W/m 8,4 km/h (2 Bft) 100,00 %
22.08.2016 23:40 16,4 C 15,6 C 13,3 C 91 % 10 lf 1025,3 hPa 0,0 l/m 0 min 0 min 5 W/m 6,3 km/h (2 Bft) 95,65 %
22.08.2016 23:42 16,4 C 15,6 C 13,3 C 91 % 10 lf 1025,3 hPa 0,0 l/m 0 min 0 min 5 W/m 6,3 km/h (2 Bft) 93,62 %
22.08.2016 23:44 16,4 C 15,6 C 13,3 C 92 % 10 lf 1025,3 hPa 0,0 l/m 0 min 0 min 5 W/m 4,2 km/h (1 Bft) 91,49 %
22.08.2016 23:46 16,3 C 15,6 C 13,3 C 91 % 10 lf 1025,2 hPa 0,0 l/m 0 min 0 min 5 W/m 4,2 km/h (1 Bft) 93,62 %
22.08.2016 23:48 16,3 C 15,6 C 13,3 C 92 % 11 lf 1025,3 hPa 0,0 l/m 0 min 0 min 5 W/m 4,2 km/h (1 Bft) 91,49 %
22.08.2016 23:50 16,3 C 15,0 C 13,3 C 92 % 11 lf 1025,3 hPa 0,0 l/m 0 min 0 min 5 W/m 6,3 km/h (2 Bft) 95,74 %
22.08.2016 23:52 16,3 C 15,0 C 13,3 C 92 % 11 lf 1025,2 hPa 0,0 l/m 0 min 0 min 5 W/m 4,2 km/h (1 Bft) 95,65 %
22.08.2016 23:54 16,3 C 15,0 C 13,3 C 92 % 11 lf 1025,3 hPa 0,0 l/m 0 min 0 min 5 W/m 6,3 km/h (2 Bft) 93,62 %
22.08.2016 23:56 16,2 C 15,0 C 13,3 C 92 % 12 lf 1025,2 hPa 0,0 l/m 0 min 0 min 5 W/m 4,2 km/h (1 Bft) 95,74 %
22.08.2016 23:58 16,2 C 15,0 C 12,8 C 92 % 12 lf 1025,2 hPa 0,0 l/m 0 min 0 min 5 W/m 2,1 km/h (1 Bft) 91,49 %
_ Min-Zeit 04:00 03:36 01:58 18:40 12:50 00:00 - - - - 20:32 13:18
Minimum _ 14,3 C 13,9 C 12,8 C 68 % 0 lf 1021,4 hPa - - - - 0,0 km/h (0 Bft) 87,23 %
_ Max-Zeit 18:04 17:04 16:40 09:48 07:56 22:42 07:58 14:12 05:44 17:04 11:50 00:00
Maximum _ 23,3 C 29,4 C 25,0 C 97 % 15 lf 1025,4 hPa 0,2 l/m 2 min 2 min 743 W/m 33,5 km/h
W-SW (5 Bft)
100,00 %
Durchschnitt _ 17,7 C 18,0 C 16,2 C 88 % 3 lf 1023,7 hPa #1,0 l/m #2:46 h #2:20 h 134 W/m 12,6 km/h (3 Bft) 96,22 %
© 2016 W. Hausmann